| time (UTC) | temp C | wind direction | speed KPH | gust KPH | rain 1hr cm | rain 24hr cm | rain mn cm | humidity % | barometer mb |
| 20260502163750 | 18 | 155 | 4.8 | 16.1 | 0.00 | 0.00 | 0.00 | 46 | 1439.3 |
| 20260502163553 | 18 | 152 | 4.8 | 16.1 | 0.00 | 0.00 | 0.00 | 47 | 1439.1 |
| 20260502163550 | 18 | 152 | 4.8 | 16.1 | 0.00 | 0.00 | 0.00 | 47 | 1439.1 |
| 20260502163350 | 18 | 182 | 8.0 | 16.1 | 0.00 | 0.00 | 0.00 | 46 | 1438.4 |
| 20260502163150 | 18 | 185 | 4.8 | 14.5 | 0.00 | 0.00 | 0.00 | 48 | 1438.5 |
| 20260502162950 | 18 | 159 | 4.8 | 12.9 | 0.00 | 0.00 | 0.00 | 48 | 1438.3 |
| 20260502162750 | 18 | 171 | 4.8 | 9.7 | 0.00 | 0.00 | 0.00 | 48 | 1439.0 |
| 20260502162552 | 18 | 142 | 3.2 | 9.7 | 0.00 | 0.00 | 0.00 | 49 | 1440.4 |
| 20260502162550 | 18 | 142 | 3.2 | 9.7 | 0.00 | 0.00 | 0.00 | 49 | 1440.4 |
| 20260502162350 | 19 | 158 | 3.2 | 9.7 | 0.00 | 0.00 | 0.00 | 49 | 1442.0 |
| 20260502162150 | 20 | 149 | 3.2 | 9.7 | 0.00 | 0.00 | 0.00 | 48 | 1443.1 |
| 20260502161952 | 20 | 147 | 3.2 | 9.7 | 0.00 | 0.00 | 0.00 | 48 | 1442.8 |
| 20260502161950 | 20 | 147 | 3.2 | 9.7 | 0.00 | 0.00 | 0.00 | 48 | 1442.8 |
| 20260502161752 | 20 | 138 | 3.2 | 9.7 | 0.00 | 0.00 | 0.00 | 48 | 1443.8 |
| 20260502161750 | 20 | 138 | 3.2 | 9.7 | 0.00 | 0.00 | 0.00 | 48 | 1443.8 |
| 20260502161550 | 20 | 152 | 3.2 | 20.9 | 0.00 | 0.00 | 0.00 | 49 | 1443.5 |
| 20260502161350 | 20 | 133 | 3.2 | 20.9 | 0.00 | 0.00 | 0.00 | 49 | 1443.8 |
| 20260502161153 | 20 | 146 | 3.2 | 20.9 | 0.00 | 0.00 | 0.00 | 50 | 1442.8 |
| 20260502161151 | 20 | 146 | 3.2 | 20.9 | 0.00 | 0.00 | 0.00 | 50 | 1442.8 |
| 20260502160952 | 19 | 139 | 3.2 | 20.9 | 0.00 | 0.00 | 0.00 | 49 | 1442.0 |
| 20260502160950 | 19 | 139 | 3.2 | 20.9 | 0.00 | 0.00 | 0.00 | 49 | 1442.0 |
| 20260502160752 | 19 | 141 | 4.8 | 20.9 | 0.00 | 0.00 | 0.00 | 49 | 1441.7 |
| 20260502160750 | 19 | 141 | 4.8 | 20.9 | 0.00 | 0.00 | 0.00 | 49 | 1441.7 |
| 20260502160553 | 19 | 137 | 3.2 | 9.7 | 0.00 | 0.00 | 0.00 | 50 | 1441.7 |
| 20260502160550 | 19 | 137 | 3.2 | 9.7 | 0.00 | 0.00 | 0.00 | 50 | 1441.7 |
| 20260502160350 | 19 | 139 | 3.2 | 12.9 | 0.00 | 0.00 | 0.00 | 49 | 1442.0 |
| 20260502160153 | 20 | 147 | 3.2 | 12.9 | 0.00 | 0.00 | 0.00 | 47 | 1444.1 |
| 20260502160150 | 20 | 147 | 3.2 | 12.9 | 0.00 | 0.00 | 0.00 | 47 | 1444.1 |
| 20260502152152 | 20 | 145 | 4.8 | 9.7 | 0.00 | 0.00 | 0.00 | 49 | 1442.9 |
| 20260502152150 | 20 | 145 | 4.8 | 9.7 | 0.00 | 0.00 | 0.00 | 49 | 1442.9 |
| 20260502151953 | 20 | 134 | 3.2 | 12.9 | 0.00 | 0.00 | 0.00 | 49 | 1443.9 |
| 20260502151950 | 20 | 134 | 3.2 | 12.9 | 0.00 | 0.00 | 0.00 | 49 | 1443.9 |
| 20260502151752 | 20 | 135 | 4.8 | 12.9 | 0.00 | 0.00 | 0.00 | 49 | 1443.2 |
| 20260502151750 | 20 | 135 | 4.8 | 12.9 | 0.00 | 0.00 | 0.00 | 49 | 1443.2 |
| 20260502151552 | 20 | 135 | 3.2 | 12.9 | 0.00 | 0.00 | 0.00 | 49 | 1444.3 |
| 20260502151550 | 20 | 135 | 3.2 | 12.9 | 0.00 | 0.00 | 0.00 | 49 | 1444.3 |
| 20260502151350 | 21 | 148 | 4.8 | 12.9 | 0.00 | 0.00 | 0.00 | 48 | 1445.2 |
| 20260502151152 | 21 | 154 | 4.8 | 14.5 | 0.00 | 0.00 | 0.00 | 49 | 1445.3 |
| 20260502151150 | 21 | 154 | 4.8 | 14.5 | 0.00 | 0.00 | 0.00 | 49 | 1445.3 |
| 20260502150952 | 21 | 138 | 3.2 | 14.5 | 0.00 | 0.00 | 0.00 | 50 | 1445.1 |
| 20260502150950 | 21 | 138 | 3.2 | 14.5 | 0.00 | 0.00 | 0.00 | 50 | 1445.1 |
| 20260502150752 | 21 | 135 | 3.2 | 14.5 | 0.00 | 0.00 | 0.00 | 49 | 1444.9 |
| 20260502150750 | 21 | 135 | 3.2 | 14.5 | 0.00 | 0.00 | 0.00 | 49 | 1444.9 |
| 20260502150552 | 20 | 138 | 4.8 | 14.5 | 0.00 | 0.00 | 0.00 | 49 | 1444.5 |
| 20260502150550 | 20 | 138 | 4.8 | 14.5 | 0.00 | 0.00 | 0.00 | 49 | 1444.5 |
| 20260502150350 | 21 | 127 | 4.8 | 14.5 | 0.00 | 0.00 | 0.00 | 48 | 1445.2 |
| 20260502150152 | 21 | 124 | 4.8 | 12.9 | 0.00 | 0.00 | 0.00 | 47 | 1446.2 |
| 20260502150150 | 21 | 124 | 4.8 | 12.9 | 0.00 | 0.00 | 0.00 | 47 | 1446.2 |
| 20260502130550 | 22 | 136 | 3.2 | 9.7 | 0.00 | 0.00 | 0.00 | 49 | 1447.8 |
| 20260502130350 | 22 | 134 | 3.2 | 9.7 | 0.00 | 0.00 | 0.00 | 48 | 1448.4 |
| 20260502130150 | 22 | 134 | 3.2 | 8.0 | 0.00 | 0.00 | 0.00 | 49 | 1448.9 |
| 20260502123750 | 21 | 135 | 3.2 | 9.7 | 0.00 | 0.00 | 0.00 | 51 | 1445.6 |
| 20260502123550 | 21 | 140 | 3.2 | 9.7 | 0.00 | 0.00 | 0.00 | 52 | 1446.4 |
| 20260502123350 | 21 | 136 | 3.2 | 9.7 | 0.00 | 0.00 | 0.00 | 52 | 1446.8 |
| 20260502123150 | 21 | 162 | 4.8 | 9.7 | 0.00 | 0.00 | 0.00 | 52 | 1446.4 |
| 20260502122950 | 21 | 137 | 3.2 | 9.7 | 0.00 | 0.00 | 0.00 | 53 | 1445.9 |
| 20260502122750 | 21 | 160 | 3.2 | 9.7 | 0.00 | 0.00 | 0.00 | 53 | 1445.4 |
| 20260502122551 | 21 | 139 | 3.2 | 9.7 | 0.00 | 0.00 | 0.00 | 53 | 1444.8 |
| 20260502122350 | 20 | 154 | 3.2 | 9.7 | 0.00 | 0.00 | 0.00 | 54 | 1444.1 |
| 20260502122150 | 20 | 166 | 4.8 | 12.9 | 0.00 | 0.00 | 0.00 | 54 | 1443.2 |
| 20260502121950 | 20 | 173 | 3.2 | 12.9 | 0.00 | 0.00 | 0.00 | 54 | 1442.7 |
| 20260502121751 | 20 | 181 | 3.2 | 16.1 | 0.00 | 0.00 | 0.00 | 55 | 1442.3 |
| 20260502121550 | 19 | 195 | 3.2 | 16.1 | 0.00 | 0.00 | 0.00 | 56 | 1441.7 |
| 20260502121350 | 19 | 154 | 3.2 | 16.1 | 0.00 | 0.00 | 0.00 | 57 | 1441.5 |
| 20260502121150 | 18 | 176 | 6.4 | 16.1 | 0.00 | 0.00 | 0.00 | 56 | 1440.6 |
| 20260502120950 | 19 | 195 | 4.8 | 14.5 | 0.00 | 0.00 | 0.00 | 56 | 1441.4 |
| 20260502120750 | 19 | 169 | 3.2 | 12.9 | 0.00 | 0.00 | 0.00 | 56 | 1441.5 |
| 20260502120550 | 19 | 200 | 4.8 | 12.9 | 0.00 | 0.00 | 0.00 | 57 | 1441.4 |
| 20260502120350 | 19 | 180 | 3.2 | 11.3 | 0.00 | 0.00 | 0.00 | 56 | 1441.7 |
| 20260502120150 | 19 | 193 | 3.2 | 11.3 | 0.00 | 0.00 | 0.00 | 57 | 1441.3 |
| 20260502115750 | 18 | 167 | 4.8 | 9.7 | 0.00 | 0.00 | 0.00 | 57 | 1440.5 |
| 20260502115550 | 18 | 152 | 4.8 | 11.3 | 0.00 | 0.00 | 0.00 | 58 | 1439.8 |
| 20260502115350 | 18 | 141 | 3.2 | 11.3 | 0.00 | 0.00 | 0.00 | 58 | 1439.7 |
| 20260502115150 | 18 | 130 | 3.2 | 11.3 | 0.00 | 0.00 | 0.00 | 58 | 1439.4 |
| 20260502114950 | 18 | 144 | 4.8 | 11.3 | 0.00 | 0.00 | 0.00 | 57 | 1439.4 |
| 20260502114750 | 18 | 148 | 3.2 | 9.7 | 0.00 | 0.00 | 0.00 | 57 | 1439.8 |
| 20260502114550 | 18 | 136 | 3.2 | 9.7 | 0.00 | 0.00 | 0.00 | 57 | 1439.9 |
| 20260502114350 | 18 | 143 | 3.2 | 9.7 | 0.00 | 0.00 | 0.00 | 56 | 1440.1 |
| 20260502114150 | 18 | 150 | 3.2 | 9.7 | 0.00 | 0.00 | 0.00 | 57 | 1439.9 |
| 20260502113950 | 18 | 147 | 3.2 | 9.7 | 0.00 | 0.00 | 0.00 | 57 | 1439.5 |
| 20260502113750 | 18 | 144 | 3.2 | 11.3 | 0.00 | 0.00 | 0.00 | 57 | 1439.1 |
| 20260502113550 | 18 | 127 | 4.8 | 11.3 | 0.00 | 0.00 | 0.00 | 56 | 1439.6 |
| 20260502113350 | 18 | 130 | 3.2 | 11.3 | 0.00 | 0.00 | 0.00 | 55 | 1440.6 |
| 20260502113150 | 19 | 128 | 3.2 | 11.3 | 0.00 | 0.00 | 0.00 | 54 | 1441.6 |
| 20260502112950 | 20 | 150 | 3.2 | 11.3 | 0.00 | 0.00 | 0.00 | 54 | 1442.2 |
| 20260502112750 | 20 | 160 | 3.2 | 11.3 | 0.00 | 0.00 | 0.00 | 55 | 1442.4 |
| 20260502112550 | 19 | 158 | 3.2 | 12.9 | 0.00 | 0.00 | 0.00 | 55 | 1442.0 |
| 20260502112350 | 19 | 179 | 4.8 | 12.9 | 0.00 | 0.00 | 0.00 | 55 | 1441.7 |
| 20260502112150 | 19 | 167 | 3.2 | 12.9 | 0.00 | 0.00 | 0.00 | 56 | 1441.2 |
| 20260502111950 | 18 | 177 | 6.4 | 12.9 | 0.00 | 0.00 | 0.00 | 56 | 1440.5 |
| 20260502111750 | 18 | 182 | 4.8 | 12.9 | 0.00 | 0.00 | 0.00 | 56 | 1440.3 |
| 20260502111550 | 18 | 167 | 4.8 | 11.3 | 0.00 | 0.00 | 0.00 | 56 | 1440.5 |
| 20260502111350 | 18 | 191 | 4.8 | 12.9 | 0.00 | 0.00 | 0.00 | 56 | 1440.6 |
| 20260502111150 | 18 | 185 | 4.8 | 12.9 | 0.00 | 0.00 | 0.00 | 56 | 1440.8 |
| 20260502110950 | 18 | 170 | 3.2 | 16.1 | 0.00 | 0.00 | 0.00 | 56 | 1440.2 |
| 20260502110550 | 18 | 145 | 3.2 | 16.1 | 0.00 | 0.00 | 0.00 | 57 | 1439.1 |
| 20260502110350 | 18 | 134 | 3.2 | 16.1 | 0.00 | 0.00 | 0.00 | 57 | 1438.7 |
| 20260502110150 | 18 | 151 | 4.8 | 16.1 | 0.00 | 0.00 | 0.00 | 56 | 1438.4 |
| 20260502105950 | 18 | 134 | 4.8 | 14.5 | 0.00 | 0.00 | 0.00 | 56 | 1438.4 |
| 20260502105750 | 18 | 140 | 6.4 | 14.5 | 0.00 | 0.00 | 0.00 | 56 | 1438.7 |
| 20260502105550 | 18 | 132 | 3.2 | 11.3 | 0.00 | 0.00 | 0.00 | 56 | 1439.1 |
| 20260502105350 | 18 | 150 | 4.8 | 14.5 | 0.00 | 0.00 | 0.00 | 55 | 1439.3 |
| 20260502105150 | 18 | 143 | 4.8 | 14.5 | 0.00 | 0.00 | 0.00 | 55 | 1439.4 |
| 20260502104950 | 18 | 138 | 3.2 | 14.5 | 0.00 | 0.00 | 0.00 | 55 | 1439.6 |
| 20260502104751 | 18 | 154 | 4.8 | 14.5 | 0.00 | 0.00 | 0.00 | 54 | 1440.1 |
| 20260502104550 | 18 | 138 | 4.8 | 14.5 | 0.00 | 0.00 | 0.00 | 54 | 1440.8 |
| 20260502104350 | 19 | 144 | 3.2 | 14.5 | 0.00 | 0.00 | 0.00 | 54 | 1441.5 |
| 20260502104150 | 19 | 147 | 3.2 | 14.5 | 0.00 | 0.00 | 0.00 | 54 | 1441.3 |
| 20260502103950 | 19 | 150 | 4.8 | 14.5 | 0.00 | 0.00 | 0.00 | 54 | 1440.9 |
| 20260502103750 | 18 | 155 | 4.8 | 14.5 | 0.00 | 0.00 | 0.00 | 55 | 1440.5 |
| 20260502103550 | 18 | 161 | 6.4 | 11.3 | 0.00 | 0.00 | 0.00 | 55 | 1440.3 |
| 20260502103350 | 18 | 138 | 3.2 | 11.3 | 0.00 | 0.00 | 0.00 | 55 | 1439.8 |
| 20260502103150 | 18 | 145 | 4.8 | 12.9 | 0.00 | 0.00 | 0.00 | 56 | 1439.6 |
| 20260502102950 | 18 | 147 | 4.8 | 12.9 | 0.00 | 0.00 | 0.00 | 56 | 1439.2 |
| 20260502102750 | 18 | 155 | 4.8 | 17.7 | 0.00 | 0.00 | 0.00 | 57 | 1438.6 |
| 20260502102550 | 17 | 147 | 4.8 | 17.7 | 0.00 | 0.00 | 0.00 | 57 | 1437.9 |
| 20260502102350 | 17 | 149 | 4.8 | 17.7 | 0.00 | 0.00 | 0.00 | 57 | 1437.5 |
| 20260502102150 | 17 | 154 | 6.4 | 17.7 | 0.00 | 0.00 | 0.00 | 57 | 1437.1 |
| 20260502101950 | 17 | 169 | 8.0 | 16.1 | 0.00 | 0.00 | 0.00 | 57 | 1437.6 |
| 20260502101750 | 17 | 147 | 4.8 | 12.9 | 0.00 | 0.00 | 0.00 | 57 | 1438.1 |
| 20260502101550 | 18 | 162 | 4.8 | 11.3 | 0.00 | 0.00 | 0.00 | 56 | 1438.3 |
| 20260502101350 | 18 | 150 | 3.2 | 22.5 | 0.00 | 0.00 | 0.00 | 57 | 1438.8 |
| 20260502101150 | 18 | 143 | 3.2 | 22.5 | 0.00 | 0.00 | 0.00 | 57 | 1438.5 |
| 20260502100950 | 17 | 145 | 3.2 | 22.5 | 0.00 | 0.00 | 0.00 | 58 | 1438.0 |
| 20260502100750 | 17 | 160 | 6.4 | 22.5 | 0.00 | 0.00 | 0.00 | 57 | 1437.0 |
| 20260502100550 | 17 | 188 | 9.7 | 22.5 | 0.00 | 0.00 | 0.00 | 56 | 1437.8 |
| 20260502100350 | 18 | 174 | 6.4 | 19.3 | 0.00 | 0.00 | 0.00 | 56 | 1438.8 |
| 20260502100150 | 18 | 161 | 4.8 | 19.3 | 0.00 | 0.00 | 0.00 | 57 | 1438.7 |
| 20260502091350 | 17 | 167 | 4.8 | 17.7 | 0.00 | 0.00 | 0.00 | 60 | 1436.1 |
| 20260502091150 | 16 | 148 | 4.8 | 17.7 | 0.00 | 0.00 | 0.00 | 60 | 1435.6 |
| 20260502090950 | 16 | 145 | 4.8 | 17.7 | 0.00 | 0.00 | 0.00 | 60 | 1435.4 |
| 20260502090750 | 17 | 160 | 4.8 | 17.7 | 0.00 | 0.00 | 0.00 | 59 | 1435.9 |
| 20260502090550 | 17 | 132 | 4.8 | 11.3 | 0.00 | 0.00 | 0.00 | 59 | 1436.4 |
| 20260502090350 | 17 | 146 | 4.8 | 11.3 | 0.00 | 0.00 | 0.00 | 60 | 1436.6 |
| 20260502090150 | 17 | 152 | 4.8 | 11.3 | 0.00 | 0.00 | 0.00 | 60 | 1436.5 |
| 20260502071350 | 14 | 122 | 6.4 | 16.1 | 0.00 | 0.00 | 0.00 | 69 | 1429.8 |
| 20260502071150 | 14 | 126 | 8.0 | 16.1 | 0.00 | 0.00 | 0.00 | 69 | 1429.8 |
| 20260502070950 | 14 | 134 | 6.4 | 16.1 | 0.00 | 0.00 | 0.00 | 69 | 1430.0 |
| 20260502070750 | 14 | 124 | 6.4 | 14.5 | 0.00 | 0.00 | 0.00 | 69 | 1429.9 |
| 20260502070550 | 14 | 127 | 6.4 | 14.5 | 0.00 | 0.00 | 0.00 | 69 | 1429.9 |
| 20260502070350 | 14 | 122 | 6.4 | 14.5 | 0.00 | 0.00 | 0.00 | 69 | 1430.2 |
| 20260502070150 | 14 | 137 | 3.2 | 14.5 | 0.00 | 0.00 | 0.00 | 69 | 1430.0 |
| 20260502065950 | 14 | 130 | 6.4 | 14.5 | 0.00 | 0.00 | 0.00 | 69 | 1429.8 |
| 20260502065750 | 14 | 136 | 4.8 | 12.9 | 0.00 | 0.00 | 0.00 | 69 | 1429.7 |
| 20260502065550 | 14 | 128 | 4.8 | 12.9 | 0.00 | 0.00 | 0.00 | 69 | 1429.5 |
| 20260502065350 | 14 | 135 | 8.0 | 12.9 | 0.00 | 0.00 | 0.00 | 68 | 1429.7 |
| 20260502065150 | 14 | 135 | 4.8 | 12.9 | 0.00 | 0.00 | 0.00 | 69 | 1429.9 |
| 20260502064950 | 14 | 118 | 4.8 | 12.9 | 0.00 | 0.00 | 0.00 | 69 | 1429.9 |
| 20260502064750 | 14 | 125 | 4.8 | 14.5 | 0.00 | 0.00 | 0.00 | 69 | 1430.1 |
| 20260502064550 | 14 | 130 | 4.8 | 14.5 | 0.00 | 0.00 | 0.00 | 69 | 1430.0 |
| 20260502064350 | 14 | 130 | 4.8 | 14.5 | 0.00 | 0.00 | 0.00 | 69 | 1429.6 |
| 20260502064150 | 14 | 135 | 4.8 | 14.5 | 0.00 | 0.00 | 0.00 | 69 | 1429.4 |
| 20260502063950 | 14 | 134 | 6.4 | 14.5 | 0.00 | 0.00 | 0.00 | 69 | 1429.3 |
| 20260502063750 | 14 | 125 | 6.4 | 12.9 | 0.00 | 0.00 | 0.00 | 68 | 1429.5 |
| 20260502063550 | 14 | 127 | 4.8 | 12.9 | 0.00 | 0.00 | 0.00 | 68 | 1429.8 |
| 20260502063350 | 14 | 140 | 4.8 | 12.9 | 0.00 | 0.00 | 0.00 | 68 | 1430.1 |
| 20260502063150 | 14 | 138 | 3.2 | 12.9 | 0.00 | 0.00 | 0.00 | 69 | 1430.1 |
| 20260502062950 | 14 | 137 | 3.2 | 12.9 | 0.00 | 0.00 | 0.00 | 69 | 1429.8 |
| 20260502062750 | 14 | 143 | 4.8 | 12.9 | 0.00 | 0.00 | 0.00 | 69 | 1429.6 |
| 20260502062550 | 14 | 164 | 4.8 | 11.3 | 0.00 | 0.00 | 0.00 | 69 | 1429.4 |
| 20260502062350 | 14 | 136 | 4.8 | 11.3 | 0.00 | 0.00 | 0.00 | 69 | 1429.2 |
| 20260502062345 | 14 | 119 | 3.2 | 16.1 | 0.00 | 0.00 | 0.00 | 69 | 1429.1 |
| 20260502061950 | 14 | 137 | 4.8 | 16.1 | 0.00 | 0.00 | 0.00 | 69 | 1429.1 |
| 20260502061750 | 14 | 135 | 4.8 | 16.1 | 0.00 | 0.00 | 0.00 | 69 | 1429.1 |
| 20260502061550 | 14 | 121 | 4.8 | 16.1 | 0.00 | 0.00 | 0.00 | 69 | 1429.1 |
| 20260502061350 | 14 | 121 | 4.8 | 16.1 | 0.00 | 0.00 | 0.00 | 69 | 1429.1 |
| 20260502061150 | 14 | 136 | 4.8 | 12.9 | 0.00 | 0.00 | 0.00 | 69 | 1429.2 |
| 20260502060950 | 14 | 136 | 4.8 | 12.9 | 0.00 | 0.00 | 0.00 | 69 | 1429.1 |
| 20260502060750 | 14 | 131 | 3.2 | 9.7 | 0.00 | 0.00 | 0.00 | 69 | 1429.1 |
| 20260502060550 | 14 | 131 | 4.8 | 9.7 | 0.00 | 0.00 | 0.00 | 69 | 1429.1 |
| 20260502060350 | 13 | 148 | 4.8 | 9.7 | 0.00 | 0.00 | 0.00 | 69 | 1428.9 |
| 20260502060150 | 13 | 126 | 4.8 | 9.7 | 0.00 | 0.00 | 0.00 | 70 | 1428.9 |
| 20260502055950 | 13 | 135 | 3.2 | 11.3 | 0.00 | 0.00 | 0.00 | 70 | 1428.8 |
| 20260502055750 | 13 | 135 | 3.2 | 11.3 | 0.00 | 0.00 | 0.00 | 70 | 1428.8 |
| 20260502055550 | 13 | 133 | 3.2 | 11.3 | 0.00 | 0.00 | 0.00 | 71 | 1428.6 |
| 20260502055350 | 13 | 131 | 4.8 | 11.3 | 0.00 | 0.00 | 0.00 | 71 | 1428.5 |
| 20260502055150 | 13 | 128 | 3.2 | 12.9 | 0.00 | 0.00 | 0.00 | 72 | 1428.4 |
| 20260502054950 | 13 | 164 | 3.2 | 12.9 | 0.00 | 0.00 | 0.00 | 72 | 1428.1 |
| 20260502054750 | 13 | 131 | 4.8 | 12.9 | 0.00 | 0.00 | 0.00 | 72 | 1427.8 |
| 20260502054550 | 13 | 131 | 4.8 | 12.9 | 0.00 | 0.00 | 0.00 | 73 | 1427.6 |
| 20260502054545 | 13 | 131 | 4.8 | 12.9 | 0.00 | 0.00 | 0.00 | 73 | 1427.6 |
| 20260502054350 | 13 | 125 | 4.8 | 12.9 | 0.00 | 0.00 | 0.00 | 74 | 1427.2 |
| 20260502054345 | 13 | 125 | 4.8 | 12.9 | 0.00 | 0.00 | 0.00 | 74 | 1427.2 |
| 20260502054151 | 13 | 128 | 3.2 | 9.7 | 0.00 | 0.00 | 0.00 | 75 | 1426.8 |
| 20260502054145 | 13 | 128 | 3.2 | 9.7 | 0.00 | 0.00 | 0.00 | 75 | 1426.8 |
| 20260502053950 | 13 | 122 | 3.2 | 9.7 | 0.00 | 0.00 | 0.00 | 76 | 1426.4 |
| 20260502053945 | 13 | 122 | 3.2 | 9.7 | 0.00 | 0.00 | 0.00 | 76 | 1426.4 |
| 20260502053750 | 12 | 121 | 3.2 | 9.7 | 0.00 | 0.00 | 0.00 | 77 | 1425.9 |
| 20260502053550 | 12 | 115 | 3.2 | 6.4 | 0.00 | 0.00 | 0.00 | 78 | 1425.5 |
| 20260502053545 | 12 | 115 | 3.2 | 6.4 | 0.00 | 0.00 | 0.00 | 78 | 1425.5 |
| 20260502053350 | 12 | 121 | 1.6 | 6.4 | 0.00 | 0.00 | 0.00 | 79 | 1425.3 |
| 20260502053345 | 12 | 121 | 1.6 | 6.4 | 0.00 | 0.00 | 0.00 | 79 | 1425.3 |
| 20260502053150 | 12 | 112 | 1.6 | 6.4 | 0.00 | 0.00 | 0.00 | 79 | 1425.0 |
| 20260502053145 | 12 | 112 | 1.6 | 6.4 | 0.00 | 0.00 | 0.00 | 79 | 1425.0 |
| 20260502052950 | 12 | 114 | 3.2 | 6.4 | 0.00 | 0.00 | 0.00 | 79 | 1424.7 |
| 20260502052945 | 12 | 114 | 3.2 | 6.4 | 0.00 | 0.00 | 0.00 | 79 | 1424.7 |
| 20260502052750 | 12 | 107 | 1.6 | 6.4 | 0.00 | 0.00 | 0.00 | 80 | 1424.5 |
| 20260502052745 | 12 | 107 | 1.6 | 6.4 | 0.00 | 0.00 | 0.00 | 80 | 1424.5 |
| 20260502052550 | 12 | 106 | 1.6 | 6.4 | 0.00 | 0.00 | 0.00 | 81 | 1424.1 |
| 20260502052350 | 12 | 95 | 1.6 | 6.4 | 0.00 | 0.00 | 0.00 | 81 | 1423.9 |
| 20260502052345 | 12 | 95 | 1.6 | 6.4 | 0.00 | 0.00 | 0.00 | 81 | 1423.9 |
| 20260502052150 | 11 | 112 | 1.6 | 6.4 | 0.00 | 0.00 | 0.00 | 82 | 1423.6 |
| 20260502052145 | 11 | 112 | 1.6 | 6.4 | 0.00 | 0.00 | 0.00 | 82 | 1423.6 |
| 20260502051950 | 11 | 93 | 1.6 | 6.4 | 0.00 | 0.00 | 0.00 | 82 | 1423.3 |
| 20260502051750 | 11 | 105 | 1.6 | 6.4 | 0.00 | 0.00 | 0.00 | 83 | 1423.0 |
| 20260502051745 | 11 | 105 | 1.6 | 6.4 | 0.00 | 0.00 | 0.00 | 83 | 1423.0 |
| 20260502051550 | 11 | 114 | 1.6 | 4.8 | 0.00 | 0.00 | 0.00 | 83 | 1422.7 |
| 20260502051350 | 11 | 88 | 1.6 | 4.8 | 0.00 | 0.00 | 0.00 | 83 | 1422.4 |
| 20260502051345 | 11 | 88 | 1.6 | 4.8 | 0.00 | 0.00 | 0.00 | 83 | 1422.4 |
| 20260502051150 | 11 | 100 | 1.6 | 4.8 | 0.00 | 0.00 | 0.00 | 84 | 1422.0 |
| 20260502051145 | 11 | 100 | 1.6 | 4.8 | 0.00 | 0.00 | 0.00 | 84 | 1422.0 |
| 20260502050950 | 11 | 109 | 1.6 | 4.8 | 0.00 | 0.00 | 0.00 | 84 | 1421.7 |
| 20260502050750 | 11 | 122 | 1.6 | 4.8 | 0.00 | 0.00 | 0.00 | 84 | 1421.3 |
| 20260502050550 | 10 | 111 | 1.6 | 4.8 | 0.00 | 0.00 | 0.00 | 84 | 1420.9 |
| 20260502050350 | 10 | 107 | 1.6 | 4.8 | 0.00 | 0.00 | 0.00 | 85 | 1420.5 |
| 20260502050150 | 10 | 92 | 0.0 | 3.2 | 0.00 | 0.00 | 0.00 | 85 | 1420.1 |
| 20260502045950 | 10 | 83 | 1.6 | 3.2 | 0.00 | 0.00 | 0.00 | 85 | 1419.7 |
| 20260502045750 | 10 | 121 | 0.0 | 3.2 | 0.00 | 0.00 | 0.00 | 85 | 1419.2 |
| 20260502045550 | 10 | 78 | 0.0 | 3.2 | 0.00 | 0.00 | 0.00 | 85 | 1418.9 |
| 20260502045350 | 10 | 90 | 0.0 | 3.2 | 0.00 | 0.00 | 0.00 | 85 | 1418.5 |
| 20260502045150 | 9 | 77 | 1.6 | 3.2 | 0.00 | 0.00 | 0.00 | 85 | 1418.3 |
| 20260502044950 | 9 | 85 | 0.0 | 3.2 | 0.00 | 0.00 | 0.00 | 85 | 1418.0 |
| 20260502044750 | 9 | 86 | 0.0 | 3.2 | 0.00 | 0.00 | 0.00 | 85 | 1417.8 |
| 20260502044550 | 9 | 102 | 0.0 | 1.6 | 0.00 | 0.00 | 0.00 | 85 | 1417.5 |
| 20260502044350 | 9 | 92 | 0.0 | 3.2 | 0.00 | 0.00 | 0.00 | 85 | 1417.3 |
| 20260502044150 | 8 | 147 | 0.0 | 3.2 | 0.00 | 0.00 | 0.00 | 85 | 1417.2 |
| 20260502043950 | 8 | 118 | 0.0 | 4.8 | 0.00 | 0.00 | 0.00 | 85 | 1417.0 |
| 20260502043750 | 8 | 103 | 0.0 | 4.8 | 0.00 | 0.00 | 0.00 | 85 | 1416.9 |
| 20260502043550 | 8 | 111 | 0.0 | 4.8 | 0.00 | 0.00 | 0.00 | 85 | 1416.7 |
| 20260502043350 | 8 | 118 | 0.0 | 4.8 | 0.00 | 0.00 | 0.00 | 85 | 1416.6 |
| 20260502043150 | 8 | 114 | 1.6 | 4.8 | 0.00 | 0.00 | 0.00 | 85 | 1416.5 |
| 20260502042950 | 8 | 91 | 1.6 | 4.8 | 0.00 | 0.00 | 0.00 | 85 | 1416.3 |
| 20260502042945 | 8 | 91 | 1.6 | 4.8 | 0.00 | 0.00 | 0.00 | 85 | 1416.3 |
| 20260502042750 | 8 | 115 | 1.6 | 4.8 | 0.00 | 0.00 | 0.00 | 84 | 1416.1 |
| 20260502042550 | 8 | 102 | 1.6 | 4.8 | 0.00 | 0.00 | 0.00 | 84 | 1415.9 |
| 20260502042350 | 8 | 127 | 1.6 | 4.8 | 0.00 | 0.00 | 0.00 | 84 | 1415.6 |
| 20260502042150 | 8 | 102 | 1.6 | 4.8 | 0.00 | 0.00 | 0.00 | 84 | 1415.4 |
| 20260502042120 | 8 | 120 | 1.6 | 4.8 | 0.00 | 0.00 | 0.00 | 84 | 14.1 |
| 20260502041945 | 8 | 120 | 1.6 | 4.8 | 0.00 | 0.00 | 0.00 | 84 | 1415.3 |
| 20260502041750 | 8 | 119 | 0.0 | 4.8 | 0.00 | 0.00 | 0.00 | 84 | 1415.1 |
| 20260502041745 | 8 | 119 | 0.0 | 4.8 | 0.00 | 0.00 | 0.00 | 84 | 1415.1 |
| 20260502041550 | 8 | 113 | 1.6 | 4.8 | 0.00 | 0.00 | 0.00 | 84 | 1415.0 |
| 20260502041545 | 8 | 113 | 1.6 | 4.8 | 0.00 | 0.00 | 0.00 | 84 | 1415.0 |
| 20260502041350 | 8 | 102 | 1.6 | 4.8 | 0.00 | 0.00 | 0.00 | 84 | 1414.9 |
| 20260502041345 | 8 | 102 | 1.6 | 4.8 | 0.00 | 0.00 | 0.00 | 84 | 1414.9 |
| 20260502041150 | 8 | 111 | 1.6 | 4.8 | 0.00 | 0.00 | 0.00 | 84 | 1414.8 |
| 20260502041145 | 8 | 111 | 1.6 | 4.8 | 0.00 | 0.00 | 0.00 | 84 | 1414.8 |
| 20260502040950 | 8 | 108 | 1.6 | 4.8 | 0.00 | 0.00 | 0.00 | 84 | 1414.8 |
| 20260502040945 | 8 | 108 | 1.6 | 4.8 | 0.00 | 0.00 | 0.00 | 84 | 1414.8 |
| 20260502040752 | 7 | 104 | 1.6 | 4.8 | 0.00 | 0.00 | 0.00 | 84 | 1414.6 |
| 20260502040750 | 7 | 104 | 1.6 | 4.8 | 0.00 | 0.00 | 0.00 | 84 | 1414.6 |
| 20260502040550 | 7 | 100 | 1.6 | 4.8 | 0.00 | 0.00 | 0.00 | 84 | 1414.5 |
| 20260502040545 | 7 | 100 | 1.6 | 4.8 | 0.00 | 0.00 | 0.00 | 84 | 1414.5 |
| 20260502040350 | 7 | 100 | 1.6 | 4.8 | 0.00 | 0.00 | 0.00 | 84 | 1414.5 |
| 20260502040152 | 7 | 116 | 1.6 | 4.8 | 0.00 | 0.00 | 0.00 | 83 | 1414.4 |
| 20260502040150 | 7 | 116 | 1.6 | 4.8 | 0.00 | 0.00 | 0.00 | 83 | 1414.4 |
| 20260502035952 | 7 | 109 | 1.6 | 4.8 | 0.00 | 0.00 | 0.00 | 83 | 1414.4 |
| 20260502035950 | 7 | 109 | 1.6 | 4.8 | 0.00 | 0.00 | 0.00 | 83 | 1414.4 |
| 20260502035752 | 7 | 99 | 1.6 | 6.4 | 0.00 | 0.00 | 0.00 | 83 | 1414.4 |
| 20260502035750 | 7 | 99 | 1.6 | 6.4 | 0.00 | 0.00 | 0.00 | 83 | 1414.4 |
| 20260502035550 | 7 | 109 | 1.6 | 6.4 | 0.00 | 0.00 | 0.00 | 83 | 1414.5 |
| 20260502035350 | 7 | 97 | 1.6 | 6.4 | 0.00 | 0.00 | 0.00 | 83 | 1414.6 |
| 20260502035152 | 8 | 113 | 1.6 | 6.4 | 0.00 | 0.00 | 0.00 | 83 | 1414.7 |
| 20260502035150 | 8 | 113 | 1.6 | 6.4 | 0.00 | 0.00 | 0.00 | 83 | 1414.7 |
| 20260502034952 | 8 | 102 | 1.6 | 6.4 | 0.00 | 0.00 | 0.00 | 83 | 1414.8 |
| 20260502034950 | 8 | 102 | 1.6 | 6.4 | 0.00 | 0.00 | 0.00 | 83 | 1414.8 |
| 20260502034752 | 8 | 101 | 1.6 | 6.4 | 0.00 | 0.00 | 0.00 | 83 | 1415.1 |
| 20260502034750 | 8 | 101 | 1.6 | 6.4 | 0.00 | 0.00 | 0.00 | 83 | 1415.1 |
| 20260502034550 | 8 | 105 | 1.6 | 6.4 | 0.00 | 0.00 | 0.00 | 83 | 1415.3 |
| 20260502034352 | 8 | 103 | 1.6 | 6.4 | 0.00 | 0.00 | 0.00 | 83 | 1415.5 |
| 20260502034350 | 8 | 103 | 1.6 | 6.4 | 0.00 | 0.00 | 0.00 | 83 | 1415.5 |
| 20260502034152 | 8 | 114 | 1.6 | 6.4 | 0.00 | 0.00 | 0.00 | 84 | 1415.6 |
| 20260502034150 | 8 | 114 | 1.6 | 6.4 | 0.00 | 0.00 | 0.00 | 84 | 1415.6 |
| 20260502033952 | 8 | 104 | 3.2 | 6.4 | 0.00 | 0.00 | 0.00 | 84 | 1415.8 |
| 20260502033950 | 8 | 104 | 3.2 | 6.4 | 0.00 | 0.00 | 0.00 | 84 | 1415.8 |
| 20260502033750 | 8 | 108 | 1.6 | 6.4 | 0.00 | 0.00 | 0.00 | 84 | 1416.0 |
| 20260502033550 | 8 | 101 | 1.6 | 9.7 | 0.00 | 0.00 | 0.00 | 84 | 1416.1 |
| 20260502033350 | 8 | 104 | 1.6 | 9.7 | 0.00 | 0.00 | 0.00 | 84 | 1416.4 |
| 20260502033150 | 8 | 115 | 1.6 | 9.7 | 0.00 | 0.00 | 0.00 | 85 | 1416.7 |
| 20260502033145 | 8 | 115 | 1.6 | 9.7 | 0.00 | 0.00 | 0.00 | 85 | 1416.7 |
| 20260502032950 | 8 | 110 | 3.2 | 9.7 | 0.00 | 0.00 | 0.00 | 85 | 1416.8 |
| 20260502032945 | 8 | 110 | 3.2 | 9.7 | 0.00 | 0.00 | 0.00 | 85 | 1416.8 |
| 20260502032750 | 8 | 112 | 3.2 | 9.7 | 0.00 | 0.00 | 0.00 | 85 | 1416.8 |
| 20260502032745 | 8 | 112 | 3.2 | 9.7 | 0.00 | 0.00 | 0.00 | 85 | 1416.8 |
| 20260502032550 | 8 | 103 | 3.2 | 6.4 | 0.00 | 0.00 | 0.00 | 85 | 1416.7 |
| 20260502032356 | 8 | 107 | 3.2 | 6.4 | 0.00 | 0.00 | 0.00 | 86 | 1416.7 |
| 20260502032350 | 8 | 105 | 3.2 | 6.4 | 0.00 | 0.00 | 0.00 | 85 | 1416.7 |
| 20260502032345 | 8 | 105 | 3.2 | 6.4 | 0.00 | 0.00 | 0.00 | 85 | 1416.7 |
| 20260502032150 | 8 | 107 | 3.2 | 6.4 | 0.00 | 0.00 | 0.00 | 86 | 1416.7 |
| 20260502032145 | 8 | 107 | 3.2 | 6.4 | 0.00 | 0.00 | 0.00 | 86 | 1416.7 |
| 20260502032020 | 8 | 117 | 3.2 | 6.4 | 0.00 | 0.00 | 0.00 | 86 | 1416.6 |
| 20260502031950 | 8 | 117 | 3.2 | 6.4 | 0.00 | 0.00 | 0.00 | 86 | 1416.6 |
| 20260502031945 | 8 | 117 | 3.2 | 6.4 | 0.00 | 0.00 | 0.00 | 86 | 1416.6 |
| 20260502031750 | 8 | 119 | 1.6 | 6.4 | 0.00 | 0.00 | 0.00 | 86 | 1416.3 |
| 20260502031550 | 8 | 113 | 1.6 | 4.8 | 0.00 | 0.00 | 0.00 | 86 | 1416.3 |
| 20260502031545 | 8 | 113 | 1.6 | 4.8 | 0.00 | 0.00 | 0.00 | 86 | 1416.3 |
| 20260502031350 | 8 | 115 | 1.6 | 4.8 | 0.00 | 0.00 | 0.00 | 86 | 1416.2 |
| 20260502031150 | 8 | 114 | 1.6 | 4.8 | 0.00 | 0.00 | 0.00 | 86 | 1415.9 |
| 20260502031145 | 8 | 114 | 1.6 | 4.8 | 0.00 | 0.00 | 0.00 | 86 | 1415.9 |
| 20260502030950 | 8 | 110 | 1.6 | 4.8 | 0.00 | 0.00 | 0.00 | 86 | 1415.5 |
| 20260502030945 | 8 | 110 | 1.6 | 4.8 | 0.00 | 0.00 | 0.00 | 86 | 1415.5 |
| 20260502030750 | 8 | 121 | 1.6 | 4.8 | 0.00 | 0.00 | 0.00 | 86 | 1415.2 |
| 20260502030745 | 8 | 121 | 1.6 | 4.8 | 0.00 | 0.00 | 0.00 | 86 | 1415.2 |
| 20260502030550 | 8 | 119 | 0.0 | 4.8 | 0.00 | 0.00 | 0.00 | 86 | 1415.1 |
| 20260502030545 | 8 | 119 | 0.0 | 4.8 | 0.00 | 0.00 | 0.00 | 86 | 1415.1 |
| 20260502030350 | 8 | 114 | 1.6 | 4.8 | 0.00 | 0.00 | 0.00 | 86 | 1414.7 |
| 20260502030345 | 8 | 114 | 1.6 | 4.8 | 0.00 | 0.00 | 0.00 | 86 | 1414.7 |
| 20260502030150 | 8 | 100 | 1.6 | 3.2 | 0.00 | 0.00 | 0.00 | 86 | 1414.6 |
| 20260502030145 | 8 | 100 | 1.6 | 3.2 | 0.00 | 0.00 | 0.00 | 86 | 1414.6 |
| 20260502025950 | 8 | 102 | 1.6 | 3.2 | 0.00 | 0.00 | 0.00 | 85 | 1414.7 |
| 20260502025945 | 8 | 102 | 1.6 | 3.2 | 0.00 | 0.00 | 0.00 | 85 | 1414.7 |
| 20260502025750 | 8 | 96 | 1.6 | 3.2 | 0.00 | 0.00 | 0.00 | 85 | 1414.8 |
| 20260502025745 | 8 | 96 | 1.6 | 3.2 | 0.00 | 0.00 | 0.00 | 85 | 1414.8 |
| 20260502025550 | 8 | 102 | 1.6 | 3.2 | 0.00 | 0.00 | 0.00 | 85 | 1415.0 |
| 20260502025545 | 8 | 102 | 1.6 | 3.2 | 0.00 | 0.00 | 0.00 | 85 | 1415.0 |
| 20260502025350 | 8 | 96 | 1.6 | 3.2 | 0.00 | 0.00 | 0.00 | 85 | 1415.2 |
| 20260502025150 | 8 | 99 | 1.6 | 3.2 | 0.00 | 0.00 | 0.00 | 85 | 1415.5 |
| 20260502025145 | 8 | 99 | 1.6 | 3.2 | 0.00 | 0.00 | 0.00 | 85 | 1415.5 |
| 20260502024950 | 8 | 96 | 1.6 | 3.2 | 0.00 | 0.00 | 0.00 | 85 | 1415.8 |
| 20260502024945 | 8 | 96 | 1.6 | 3.2 | 0.00 | 0.00 | 0.00 | 85 | 1415.8 |
| 20260502024750 | 8 | 100 | 1.6 | 4.8 | 0.00 | 0.00 | 0.00 | 85 | 1416.0 |
| 20260502024550 | 8 | 102 | 1.6 | 4.8 | 0.00 | 0.00 | 0.00 | 85 | 1416.4 |
| 20260502024545 | 8 | 102 | 1.6 | 4.8 | 0.00 | 0.00 | 0.00 | 85 | 1416.4 |
| 20260502024350 | 8 | 114 | 1.6 | 4.8 | 0.00 | 0.00 | 0.00 | 85 | 1416.7 |
| 20260502024345 | 8 | 114 | 1.6 | 4.8 | 0.00 | 0.00 | 0.00 | 85 | 1416.7 |
| 20260502024150 | 8 | 100 | 1.6 | 6.4 | 0.00 | 0.00 | 0.00 | 85 | 1416.9 |
| 20260502024145 | 8 | 100 | 1.6 | 6.4 | 0.00 | 0.00 | 0.00 | 85 | 1416.9 |
| 20260502023950 | 8 | 112 | 1.6 | 6.4 | 0.00 | 0.00 | 0.00 | 84 | 1417.0 |
| 20260502023945 | 8 | 112 | 1.6 | 6.4 | 0.00 | 0.00 | 0.00 | 84 | 1417.0 |
| 20260502023750 | 8 | 125 | 1.6 | 6.4 | 0.00 | 0.00 | 0.00 | 84 | 1417.2 |
| 20260502023745 | 8 | 125 | 1.6 | 6.4 | 0.00 | 0.00 | 0.00 | 84 | 1417.2 |
| 20260502023550 | 9 | 124 | 3.2 | 6.4 | 0.00 | 0.00 | 0.00 | 84 | 1417.3 |
| 20260502023545 | 9 | 124 | 3.2 | 6.4 | 0.00 | 0.00 | 0.00 | 84 | 1417.3 |
| 20260502023350 | 9 | 113 | 3.2 | 6.4 | 0.00 | 0.00 | 0.00 | 84 | 1417.3 |
| 20260502023345 | 9 | 113 | 3.2 | 6.4 | 0.00 | 0.00 | 0.00 | 84 | 1417.3 |
| 20260502023150 | 9 | 108 | 1.6 | 4.8 | 0.00 | 0.00 | 0.00 | 84 | 1417.3 |
| 20260502023145 | 9 | 108 | 1.6 | 4.8 | 0.00 | 0.00 | 0.00 | 84 | 1417.3 |
| 20260502022950 | 8 | 122 | 1.6 | 4.8 | 0.00 | 0.00 | 0.00 | 83 | 1417.3 |
| 20260502022945 | 8 | 122 | 1.6 | 4.8 | 0.00 | 0.00 | 0.00 | 83 | 1417.3 |
| 20260502022750 | 9 | 113 | 1.6 | 4.8 | 0.00 | 0.00 | 0.00 | 83 | 1417.3 |
| 20260502022745 | 9 | 113 | 1.6 | 4.8 | 0.00 | 0.00 | 0.00 | 83 | 1417.3 |
| 20260502022550 | 9 | 116 | 1.6 | 4.8 | 0.00 | 0.00 | 0.00 | 83 | 1417.4 |
| 20260502022350 | 9 | 114 | 1.6 | 4.8 | 0.00 | 0.00 | 0.00 | 83 | 1417.6 |
| 20260502022345 | 9 | 114 | 1.6 | 4.8 | 0.00 | 0.00 | 0.00 | 83 | 1417.6 |
| 20260502022150 | 9 | 110 | 1.6 | 4.8 | 0.00 | 0.00 | 0.00 | 83 | 1417.7 |
| 20260502022145 | 9 | 110 | 1.6 | 4.8 | 0.00 | 0.00 | 0.00 | 83 | 1417.7 |
| 20260502021950 | 9 | 135 | 1.6 | 4.8 | 0.00 | 0.00 | 0.00 | 82 | 1417.8 |
| 20260502021945 | 9 | 135 | 1.6 | 4.8 | 0.00 | 0.00 | 0.00 | 82 | 1417.8 |
| 20260502021750 | 9 | 125 | 1.6 | 6.4 | 0.00 | 0.00 | 0.00 | 82 | 1417.8 |
| 20260502021550 | 9 | 119 | 1.6 | 6.4 | 0.00 | 0.00 | 0.00 | 82 | 1417.7 |
| 20260502021545 | 9 | 119 | 1.6 | 6.4 | 0.00 | 0.00 | 0.00 | 82 | 1417.7 |
| 20260502021350 | 9 | 121 | 1.6 | 6.4 | 0.00 | 0.00 | 0.00 | 82 | 1417.7 |
| 20260502021345 | 9 | 121 | 1.6 | 6.4 | 0.00 | 0.00 | 0.00 | 82 | 1417.7 |
| 20260502021150 | 9 | 114 | 3.2 | 6.4 | 0.00 | 0.00 | 0.00 | 81 | 1417.8 |
| 20260502021145 | 9 | 114 | 3.2 | 6.4 | 0.00 | 0.00 | 0.00 | 81 | 1417.8 |
| 20260502020950 | 9 | 121 | 1.6 | 6.4 | 0.00 | 0.00 | 0.00 | 81 | 1417.8 |
| 20260502020945 | 9 | 121 | 1.6 | 6.4 | 0.00 | 0.00 | 0.00 | 81 | 1417.8 |
| 20260502020750 | 9 | 113 | 1.6 | 6.4 | 0.00 | 0.00 | 0.00 | 81 | 1418.0 |
| 20260502020550 | 9 | 121 | 1.6 | 6.4 | 0.00 | 0.00 | 0.00 | 80 | 1418.1 |
| 20260502020545 | 9 | 121 | 1.6 | 6.4 | 0.00 | 0.00 | 0.00 | 80 | 1418.1 |
| 20260502020350 | 9 | 121 | 1.6 | 6.4 | 0.00 | 0.00 | 0.00 | 80 | 1418.0 |
| 20260502020346 | 9 | 121 | 1.6 | 6.4 | 0.00 | 0.00 | 0.00 | 80 | 1418.0 |
| 20260502020150 | 9 | 119 | 1.6 | 6.4 | 0.00 | 0.00 | 0.00 | 80 | 1417.9 |
| 20260502020145 | 9 | 119 | 1.6 | 6.4 | 0.00 | 0.00 | 0.00 | 80 | 1417.9 |
| 20260502015950 | 9 | 117 | 1.6 | 6.4 | 0.00 | 0.00 | 0.00 | 79 | 1417.9 |
| 20260502015945 | 9 | 117 | 1.6 | 6.4 | 0.00 | 0.00 | 0.00 | 79 | 1417.9 |
| 20260502015750 | 9 | 121 | 3.2 | 6.4 | 0.00 | 0.00 | 0.00 | 79 | 1417.8 |
| 20260502015745 | 9 | 121 | 3.2 | 6.4 | 0.00 | 0.00 | 0.00 | 79 | 1417.8 |
| 20260502015550 | 9 | 119 | 1.6 | 6.4 | 0.00 | 0.00 | 0.00 | 79 | 1417.8 |
| 20260502015545 | 9 | 119 | 1.6 | 6.4 | 0.00 | 0.00 | 0.00 | 79 | 1417.8 |
| 20260502015350 | 9 | 117 | 1.6 | 6.4 | 0.00 | 0.00 | 0.00 | 78 | 1417.8 |
| 20260502015150 | 9 | 117 | 1.6 | 3.2 | 0.00 | 0.00 | 0.00 | 78 | 1417.9 |
| 20260502015145 | 9 | 117 | 1.6 | 3.2 | 0.00 | 0.00 | 0.00 | 78 | 1417.9 |
| 20260502014950 | 9 | 114 | 1.6 | 4.8 | 0.00 | 0.00 | 0.00 | 77 | 1418.0 |
| 20260502014945 | 9 | 114 | 1.6 | 4.8 | 0.00 | 0.00 | 0.00 | 77 | 1418.0 |
| 20260502014750 | 9 | 128 | 0.0 | 6.4 | 0.00 | 0.00 | 0.00 | 77 | 1418.2 |
| 20260502014550 | 9 | 118 | 1.6 | 6.4 | 0.00 | 0.00 | 0.00 | 77 | 1418.4 |
| 20260502014545 | 9 | 118 | 1.6 | 6.4 | 0.00 | 0.00 | 0.00 | 77 | 1418.4 |
| 20260502014350 | 10 | 116 | 1.6 | 6.4 | 0.00 | 0.00 | 0.00 | 77 | 1418.6 |
| 20260502014345 | 10 | 116 | 1.6 | 6.4 | 0.00 | 0.00 | 0.00 | 77 | 1418.6 |
| 20260502014150 | 10 | 122 | 1.6 | 6.4 | 0.00 | 0.00 | 0.00 | 76 | 1418.8 |
| 20260502014145 | 10 | 122 | 1.6 | 6.4 | 0.00 | 0.00 | 0.00 | 76 | 1418.8 |
| 20260502013950 | 10 | 117 | 1.6 | 6.4 | 0.00 | 0.00 | 0.00 | 76 | 1418.8 |
| 20260502013945 | 10 | 117 | 1.6 | 6.4 | 0.00 | 0.00 | 0.00 | 76 | 1418.8 |
| 20260502013750 | 10 | 113 | 3.2 | 6.4 | 0.00 | 0.00 | 0.00 | 76 | 1418.8 |
| 20260502013745 | 10 | 113 | 3.2 | 6.4 | 0.00 | 0.00 | 0.00 | 76 | 1418.8 |
| 20260502013545 | 10 | 120 | 1.6 | 4.8 | 0.00 | 0.00 | 0.00 | 75 | 1418.9 |
| 20260502013350 | 10 | 116 | 1.6 | 6.4 | 0.00 | 0.00 | 0.00 | 75 | 1419.0 |
| 20260502013345 | 10 | 116 | 1.6 | 6.4 | 0.00 | 0.00 | 0.00 | 75 | 1419.0 |
| 20260502013150 | 10 | 133 | 1.6 | 6.4 | 0.00 | 0.00 | 0.00 | 75 | 1419.0 |
| 20260502012950 | 10 | 136 | 1.6 | 6.4 | 0.00 | 0.00 | 0.00 | 75 | 1419.0 |
| 20260502012945 | 10 | 136 | 1.6 | 6.4 | 0.00 | 0.00 | 0.00 | 75 | 1419.0 |
| 20260502012750 | 10 | 128 | 1.6 | 6.4 | 0.00 | 0.00 | 0.00 | 75 | 1418.9 |
| 20260502012745 | 10 | 128 | 1.6 | 6.4 | 0.00 | 0.00 | 0.00 | 75 | 1418.9 |
| 20260502012550 | 10 | 123 | 1.6 | 6.4 | 0.00 | 0.00 | 0.00 | 75 | 1418.8 |
| 20260502012545 | 10 | 123 | 1.6 | 6.4 | 0.00 | 0.00 | 0.00 | 75 | 1418.8 |
| 20260502012350 | 10 | 115 | 1.6 | 6.4 | 0.00 | 0.00 | 0.00 | 75 | 1418.8 |
| 20260502012345 | 10 | 115 | 1.6 | 6.4 | 0.00 | 0.00 | 0.00 | 75 | 1418.8 |
| 20260502012150 | 10 | 125 | 1.6 | 4.8 | 0.00 | 0.00 | 0.00 | 75 | 1418.8 |
| 20260502012145 | 10 | 125 | 1.6 | 4.8 | 0.00 | 0.00 | 0.00 | 75 | 1418.8 |
| 20260502011950 | 10 | 128 | 1.6 | 4.8 | 0.00 | 0.00 | 0.00 | 75 | 1418.8 |
| 20260502011945 | 10 | 128 | 1.6 | 4.8 | 0.00 | 0.00 | 0.00 | 75 | 1418.8 |
| 20260502011752 | 10 | 120 | 1.6 | 4.8 | 0.00 | 0.00 | 0.00 | 74 | 1418.6 |
| 20260502011750 | 10 | 120 | 1.6 | 4.8 | 0.00 | 0.00 | 0.00 | 74 | 1418.6 |
| 20260502011550 | 10 | 127 | 1.6 | 4.8 | 0.00 | 0.00 | 0.00 | 74 | 1418.6 |
| 20260502011545 | 10 | 127 | 1.6 | 4.8 | 0.00 | 0.00 | 0.00 | 74 | 1418.6 |
| 20260502011350 | 10 | 117 | 1.6 | 4.8 | 0.00 | 0.00 | 0.00 | 74 | 1418.6 |
| 20260502011150 | 10 | 120 | 1.6 | 4.8 | 0.00 | 0.00 | 0.00 | 74 | 1418.6 |
| 20260502010950 | 10 | 128 | 1.6 | 3.2 | 0.00 | 0.00 | 0.00 | 74 | 1418.6 |
| 20260502010945 | 10 | 128 | 1.6 | 3.2 | 0.00 | 0.00 | 0.00 | 74 | 1418.6 |
| 20260502010750 | 10 | 113 | 0.0 | 3.2 | 0.00 | 0.00 | 0.00 | 74 | 1418.6 |
| 20260502010745 | 10 | 113 | 0.0 | 3.2 | 0.00 | 0.00 | 0.00 | 74 | 1418.6 |
| 20260502010546 | 10 | 126 | 1.6 | 3.2 | 0.00 | 0.00 | 0.00 | 74 | 1418.6 |
| 20260502010350 | 10 | 120 | 1.6 | 4.8 | 0.00 | 0.00 | 0.00 | 74 | 1418.8 |
| 20260502010345 | 10 | 120 | 1.6 | 4.8 | 0.00 | 0.00 | 0.00 | 74 | 1418.8 |
| 20260502010150 | 10 | 134 | 0.0 | 6.4 | 0.00 | 0.00 | 0.00 | 73 | 1419.0 |
| 20260502010145 | 10 | 134 | 0.0 | 6.4 | 0.00 | 0.00 | 0.00 | 73 | 1419.0 |
| 20260502005950 | 10 | 117 | 1.6 | 6.4 | 0.00 | 0.00 | 0.00 | 74 | 1419.1 |
| 20260502005945 | 10 | 117 | 1.6 | 6.4 | 0.00 | 0.00 | 0.00 | 74 | 1419.1 |
| 20260502005750 | 10 | 121 | 1.6 | 6.4 | 0.00 | 0.00 | 0.00 | 74 | 1419.2 |
| 20260502005745 | 10 | 121 | 1.6 | 6.4 | 0.00 | 0.00 | 0.00 | 74 | 1419.2 |
| 20260502005550 | 10 | 115 | 1.6 | 6.4 | 0.00 | 0.00 | 0.00 | 74 | 1419.2 |
| 20260502005545 | 10 | 115 | 1.6 | 6.4 | 0.00 | 0.00 | 0.00 | 74 | 1419.2 |
| 20260502005351 | 10 | 122 | 1.6 | 6.4 | 0.00 | 0.00 | 0.00 | 74 | 1419.1 |
| 20260502005345 | 10 | 122 | 1.6 | 6.4 | 0.00 | 0.00 | 0.00 | 74 | 1419.1 |
| 20260502005151 | 10 | 117 | 1.6 | 4.8 | 0.00 | 0.00 | 0.00 | 73 | 1419.1 |
| 20260502005145 | 10 | 117 | 1.6 | 4.8 | 0.00 | 0.00 | 0.00 | 73 | 1419.1 |
| 20260502004950 | 10 | 123 | 1.6 | 4.8 | 0.00 | 0.00 | 0.00 | 73 | 1419.1 |
| 20260502004945 | 10 | 123 | 1.6 | 4.8 | 0.00 | 0.00 | 0.00 | 73 | 1419.1 |
| 20260502004750 | 10 | 116 | 1.6 | 4.8 | 0.00 | 0.00 | 0.00 | 73 | 1419.1 |
| 20260502004550 | 10 | 115 | 1.6 | 4.8 | 0.00 | 0.00 | 0.00 | 73 | 1419.0 |
| 20260502004545 | 10 | 115 | 1.6 | 4.8 | 0.00 | 0.00 | 0.00 | 73 | 1419.0 |
| 20260502004350 | 10 | 117 | 1.6 | 4.8 | 0.00 | 0.00 | 0.00 | 73 | 1418.9 |
| 20260502004345 | 10 | 117 | 1.6 | 4.8 | 0.00 | 0.00 | 0.00 | 73 | 1418.9 |
| 20260502004150 | 10 | 125 | 1.6 | 4.8 | 0.00 | 0.00 | 0.00 | 73 | 1419.0 |
| 20260502004145 | 10 | 125 | 1.6 | 4.8 | 0.00 | 0.00 | 0.00 | 73 | 1419.0 |
| 20260502003950 | 10 | 119 | 1.6 | 4.8 | 0.00 | 0.00 | 0.00 | 73 | 1419.0 |
| 20260502003945 | 10 | 119 | 1.6 | 4.8 | 0.00 | 0.00 | 0.00 | 73 | 1419.0 |
| 20260502003750 | 10 | 127 | 1.6 | 3.2 | 0.00 | 0.00 | 0.00 | 72 | 1419.0 |
| 20260502003745 | 10 | 127 | 1.6 | 3.2 | 0.00 | 0.00 | 0.00 | 72 | 1419.0 |
| 20260502003550 | 10 | 114 | 1.6 | 3.2 | 0.00 | 0.00 | 0.00 | 72 | 1419.2 |
| 20260502003545 | 10 | 114 | 1.6 | 3.2 | 0.00 | 0.00 | 0.00 | 72 | 1419.2 |
| 20260502003350 | 10 | 114 | 1.6 | 4.8 | 0.00 | 0.00 | 0.00 | 72 | 1419.4 |
| 20260502003345 | 10 | 114 | 1.6 | 4.8 | 0.00 | 0.00 | 0.00 | 72 | 1419.4 |
| 20260502003150 | 10 | 136 | 1.6 | 4.8 | 0.00 | 0.00 | 0.00 | 72 | 1419.5 |
| 20260502003145 | 10 | 136 | 1.6 | 4.8 | 0.00 | 0.00 | 0.00 | 72 | 1419.5 |
| 20260502002950 | 10 | 116 | 1.6 | 4.8 | 0.00 | 0.00 | 0.00 | 72 | 1419.6 |
| 20260502002945 | 10 | 116 | 1.6 | 4.8 | 0.00 | 0.00 | 0.00 | 72 | 1419.6 |
| 20260502002750 | 10 | 121 | 1.6 | 4.8 | 0.00 | 0.00 | 0.00 | 72 | 1419.6 |
| 20260502002745 | 10 | 121 | 1.6 | 4.8 | 0.00 | 0.00 | 0.00 | 72 | 1419.6 |
| 20260502002550 | 10 | 121 | 1.6 | 4.8 | 0.00 | 0.00 | 0.00 | 72 | 1419.6 |
| 20260502002545 | 10 | 121 | 1.6 | 4.8 | 0.00 | 0.00 | 0.00 | 72 | 1419.6 |
| 20260502002350 | 10 | 125 | 1.6 | 4.8 | 0.00 | 0.00 | 0.00 | 72 | 1419.6 |
| 20260502002345 | 10 | 125 | 1.6 | 4.8 | 0.00 | 0.00 | 0.00 | 72 | 1419.6 |
| 20260502002150 | 10 | 130 | 1.6 | 4.8 | 0.00 | 0.00 | 0.00 | 72 | 1419.7 |
| 20260502002145 | 10 | 130 | 1.6 | 4.8 | 0.00 | 0.00 | 0.00 | 72 | 1419.7 |
| 20260502001950 | 10 | 118 | 1.6 | 4.8 | 0.00 | 0.00 | 0.00 | 72 | 1419.8 |
| 20260502001945 | 10 | 118 | 1.6 | 4.8 | 0.00 | 0.00 | 0.00 | 72 | 1419.8 |
| 20260502001750 | 10 | 121 | 1.6 | 4.8 | 0.00 | 0.00 | 0.00 | 72 | 1419.9 |
| 20260502001550 | 10 | 117 | 3.2 | 4.8 | 0.00 | 0.00 | 0.00 | 73 | 1419.8 |
| 20260502001545 | 10 | 117 | 3.2 | 4.8 | 0.00 | 0.00 | 0.00 | 73 | 1419.8 |
| 20260502001350 | 10 | 119 | 1.6 | 4.8 | 0.00 | 0.00 | 0.00 | 73 | 1419.7 |
| 20260502001345 | 10 | 119 | 1.6 | 4.8 | 0.00 | 0.00 | 0.00 | 73 | 1419.7 |
| 20260502001150 | 10 | 117 | 1.6 | 4.8 | 0.00 | 0.00 | 0.00 | 73 | 1419.6 |
| 20260502001145 | 10 | 117 | 1.6 | 4.8 | 0.00 | 0.00 | 0.00 | 73 | 1419.6 |
| 20260502000950 | 10 | 128 | 1.6 | 4.8 | 0.00 | 0.00 | 0.00 | 73 | 1419.4 |
| 20260502000945 | 10 | 128 | 1.6 | 4.8 | 0.00 | 0.00 | 0.00 | 73 | 1419.4 |
| 20260502000750 | 10 | 120 | 1.6 | 4.8 | 0.00 | 0.00 | 0.00 | 73 | 1419.3 |
| 20260502000745 | 10 | 120 | 1.6 | 4.8 | 0.00 | 0.00 | 0.00 | 73 | 1419.3 |
| 20260502000550 | 10 | 118 | 1.6 | 3.2 | 0.00 | 0.00 | 0.00 | 73 | 1419.1 |
| 20260502000546 | 10 | 118 | 1.6 | 3.2 | 0.00 | 0.00 | 0.00 | 73 | 1419.1 |
| 20260502000350 | 10 | 116 | 1.6 | 3.2 | 0.00 | 0.00 | 0.00 | 73 | 1419.0 |
| 20260502000347 | 10 | 116 | 1.6 | 3.2 | 0.00 | 0.00 | 0.00 | 73 | 1419.0 |
| 20260502000150 | 10 | 142 | 0.0 | 3.2 | 0.00 | 0.00 | 0.00 | 73 | 1419.2 |
| 20260502000145 | 10 | 142 | 0.0 | 3.2 | 0.00 | 0.00 | 0.00 | 73 | 1419.2 |
| 20260501235950 | 10 | 116 | 1.6 | 3.2 | 0.00 | 0.00 | 0.00 | 73 | 1419.3 |
| 20260501235750 | 10 | 123 | 0.0 | 3.2 | 0.00 | 0.00 | 0.00 | 73 | 1419.3 |
| 20260501235745 | 10 | 123 | 0.0 | 3.2 | 0.00 | 0.00 | 0.00 | 73 | 1419.3 |
| 20260501235550 | 10 | 122 | 0.0 | 4.8 | 0.00 | 0.00 | 0.00 | 72 | 1419.6 |
| 20260501235350 | 10 | 114 | 1.6 | 4.8 | 0.00 | 0.00 | 0.00 | 72 | 1419.7 |
| 20260501235345 | 10 | 114 | 1.6 | 4.8 | 0.00 | 0.00 | 0.00 | 72 | 1419.7 |
| 20260501235150 | 10 | 119 | 1.6 | 4.8 | 0.00 | 0.00 | 0.00 | 72 | 1419.8 |
| 20260501235145 | 10 | 119 | 1.6 | 4.8 | 0.00 | 0.00 | 0.00 | 72 | 1419.8 |
| 20260501234950 | 10 | 113 | 1.6 | 4.8 | 0.00 | 0.00 | 0.00 | 72 | 1419.9 |
| 20260501234945 | 10 | 113 | 1.6 | 4.8 | 0.00 | 0.00 | 0.00 | 72 | 1419.9 |
| 20260501234750 | 10 | 119 | 1.6 | 4.8 | 0.00 | 0.00 | 0.00 | 72 | 1419.8 |
| 20260501234745 | 10 | 119 | 1.6 | 4.8 | 0.00 | 0.00 | 0.00 | 72 | 1419.8 |
| 20260501234550 | 10 | 116 | 1.6 | 4.8 | 0.00 | 0.00 | 0.00 | 72 | 1419.6 |
| 20260501234545 | 10 | 116 | 1.6 | 4.8 | 0.00 | 0.00 | 0.00 | 72 | 1419.6 |
| 20260501234350 | 10 | 131 | 1.6 | 3.2 | 0.00 | 0.00 | 0.00 | 72 | 1419.6 |
| 20260501234345 | 10 | 131 | 1.6 | 3.2 | 0.00 | 0.00 | 0.00 | 72 | 1419.6 |
| 20260501234150 | 10 | 129 | 0.0 | 6.4 | 0.00 | 0.00 | 0.00 | 72 | 1419.7 |
| 20260501234145 | 10 | 129 | 0.0 | 6.4 | 0.00 | 0.00 | 0.00 | 72 | 1419.7 |
| 20260501233950 | 10 | 133 | 0.0 | 6.4 | 0.00 | 0.00 | 0.00 | 72 | 1419.9 |
| 20260501233945 | 10 | 133 | 0.0 | 6.4 | 0.00 | 0.00 | 0.00 | 72 | 1419.9 |
| 20260501233750 | 10 | 133 | 1.6 | 6.4 | 0.00 | 0.00 | 0.00 | 71 | 1420.0 |
| 20260501233745 | 10 | 133 | 1.6 | 6.4 | 0.00 | 0.00 | 0.00 | 71 | 1420.0 |
| 20260501233550 | 10 | 146 | 1.6 | 6.4 | 0.00 | 0.00 | 0.00 | 71 | 1420.1 |
| 20260501233545 | 10 | 146 | 1.6 | 6.4 | 0.00 | 0.00 | 0.00 | 71 | 1420.1 |
| 20260501233350 | 10 | 145 | 1.6 | 6.4 | 0.00 | 0.00 | 0.00 | 72 | 1420.3 |
| 20260501233345 | 10 | 145 | 1.6 | 6.4 | 0.00 | 0.00 | 0.00 | 72 | 1420.3 |
| 20260501233150 | 10 | 122 | 1.6 | 6.4 | 0.00 | 0.00 | 0.00 | 72 | 1420.3 |
| 20260501233145 | 10 | 122 | 1.6 | 6.4 | 0.00 | 0.00 | 0.00 | 72 | 1420.3 |
| 20260501232950 | 10 | 121 | 1.6 | 6.4 | 0.00 | 0.00 | 0.00 | 72 | 1420.3 |
| 20260501232945 | 10 | 121 | 1.6 | 6.4 | 0.00 | 0.00 | 0.00 | 72 | 1420.3 |
| 20260501232750 | 10 | 132 | 1.6 | 8.0 | 0.00 | 0.00 | 0.00 | 72 | 1420.4 |
| 20260501232745 | 10 | 132 | 1.6 | 8.0 | 0.00 | 0.00 | 0.00 | 72 | 1420.4 |
| 20260501232550 | 10 | 129 | 1.6 | 8.0 | 0.00 | 0.00 | 0.00 | 72 | 1420.5 |
| 20260501232350 | 10 | 124 | 3.2 | 8.0 | 0.00 | 0.00 | 0.00 | 72 | 1420.5 |
| 20260501232345 | 10 | 124 | 3.2 | 8.0 | 0.00 | 0.00 | 0.00 | 72 | 1420.5 |
| 20260501232150 | 10 | 136 | 3.2 | 8.0 | 0.00 | 0.00 | 0.00 | 72 | 1420.5 |
| 20260501232145 | 10 | 136 | 3.2 | 8.0 | 0.00 | 0.00 | 0.00 | 72 | 1420.5 |
| 20260501231950 | 10 | 114 | 3.2 | 8.0 | 0.00 | 0.00 | 0.00 | 72 | 1420.4 |
| 20260501231750 | 10 | 126 | 3.2 | 6.4 | 0.00 | 0.00 | 0.00 | 72 | 1420.4 |
| 20260501231745 | 10 | 126 | 3.2 | 6.4 | 0.00 | 0.00 | 0.00 | 72 | 1420.4 |
| 20260501231550 | 10 | 111 | 1.6 | 6.4 | 0.00 | 0.00 | 0.00 | 72 | 1420.4 |
| 20260501231545 | 10 | 111 | 1.6 | 6.4 | 0.00 | 0.00 | 0.00 | 72 | 1420.4 |
| 20260501231350 | 10 | 119 | 3.2 | 6.4 | 0.00 | 0.00 | 0.00 | 72 | 1420.3 |
| 20260501231345 | 10 | 119 | 3.2 | 6.4 | 0.00 | 0.00 | 0.00 | 72 | 1420.3 |
| 20260501231150 | 10 | 118 | 3.2 | 6.4 | 0.00 | 0.00 | 0.00 | 72 | 1420.3 |
| 20260501230950 | 10 | 121 | 1.6 | 4.8 | 0.00 | 0.00 | 0.00 | 72 | 1420.3 |
| 20260501230945 | 10 | 121 | 1.6 | 4.8 | 0.00 | 0.00 | 0.00 | 72 | 1420.3 |
| 20260501230750 | 10 | 114 | 1.6 | 6.4 | 0.00 | 0.00 | 0.00 | 72 | 1420.4 |
| 20260501230745 | 10 | 114 | 1.6 | 6.4 | 0.00 | 0.00 | 0.00 | 72 | 1420.4 |
| 20260501230550 | 10 | 114 | 1.6 | 6.4 | 0.00 | 0.00 | 0.00 | 72 | 1420.5 |
| 20260501230545 | 10 | 114 | 1.6 | 6.4 | 0.00 | 0.00 | 0.00 | 72 | 1420.5 |
| 20260501230350 | 10 | 119 | 1.6 | 6.4 | 0.00 | 0.00 | 0.00 | 72 | 1420.5 |
| 20260501230150 | 10 | 130 | 1.6 | 6.4 | 0.00 | 0.00 | 0.00 | 72 | 1420.7 |
| 20260501230145 | 10 | 130 | 1.6 | 6.4 | 0.00 | 0.00 | 0.00 | 72 | 1420.7 |
| 20260501225950 | 10 | 133 | 3.2 | 6.4 | 0.00 | 0.00 | 0.00 | 72 | 1420.8 |
| 20260501225945 | 10 | 133 | 3.2 | 6.4 | 0.00 | 0.00 | 0.00 | 72 | 1420.8 |
| 20260501225750 | 10 | 127 | 1.6 | 6.4 | 0.00 | 0.00 | 0.00 | 72 | 1420.8 |
| 20260501225745 | 10 | 127 | 1.6 | 6.4 | 0.00 | 0.00 | 0.00 | 72 | 1420.8 |
| 20260501225550 | 10 | 130 | 1.6 | 6.4 | 0.00 | 0.00 | 0.00 | 72 | 1420.9 |
| 20260501225545 | 10 | 130 | 1.6 | 6.4 | 0.00 | 0.00 | 0.00 | 72 | 1420.9 |
| 20260501225350 | 10 | 127 | 3.2 | 8.0 | 0.00 | 0.00 | 0.00 | 72 | 1420.9 |
| 20260501225345 | 10 | 127 | 3.2 | 8.0 | 0.00 | 0.00 | 0.00 | 72 | 1420.9 |
| 20260501225150 | 10 | 126 | 3.2 | 8.0 | 0.00 | 0.00 | 0.00 | 72 | 1420.9 |
| 20260501225145 | 10 | 126 | 3.2 | 8.0 | 0.00 | 0.00 | 0.00 | 72 | 1420.9 |
| 20260501224950 | 10 | 114 | 3.2 | 8.0 | 0.00 | 0.00 | 0.00 | 72 | 1420.9 |
| 20260501224751 | 10 | 127 | 3.2 | 8.0 | 0.00 | 0.00 | 0.00 | 72 | 1420.8 |
| 20260501224745 | 10 | 127 | 3.2 | 8.0 | 0.00 | 0.00 | 0.00 | 72 | 1420.8 |
| 20260501224550 | 10 | 114 | 3.2 | 8.0 | 0.00 | 0.00 | 0.00 | 72 | 1420.8 |
| 20260501224350 | 10 | 129 | 1.6 | 8.0 | 0.00 | 0.00 | 0.00 | 73 | 1420.8 |
| 20260501224345 | 10 | 129 | 1.6 | 8.0 | 0.00 | 0.00 | 0.00 | 73 | 1420.8 |
| 20260501224150 | 10 | 147 | 1.6 | 8.0 | 0.00 | 0.00 | 0.00 | 73 | 1420.9 |
| 20260501224145 | 10 | 147 | 1.6 | 8.0 | 0.00 | 0.00 | 0.00 | 73 | 1420.9 |
| 20260501223950 | 10 | 131 | 3.2 | 8.0 | 0.00 | 0.00 | 0.00 | 73 | 1420.9 |
| 20260501223945 | 10 | 131 | 3.2 | 8.0 | 0.00 | 0.00 | 0.00 | 73 | 1420.9 |
| 20260501223750 | 10 | 124 | 1.6 | 4.8 | 0.00 | 0.00 | 0.00 | 73 | 1420.8 |
| 20260501223745 | 10 | 124 | 1.6 | 4.8 | 0.00 | 0.00 | 0.00 | 73 | 1420.8 |
| 20260501223550 | 10 | 124 | 1.6 | 8.0 | 0.00 | 0.00 | 0.00 | 73 | 1420.8 |
| 20260501223545 | 10 | 124 | 1.6 | 8.0 | 0.00 | 0.00 | 0.00 | 73 | 1420.8 |
| 20260501223350 | 10 | 133 | 1.6 | 8.0 | 0.00 | 0.00 | 0.00 | 73 | 1420.8 |
| 20260501223345 | 10 | 133 | 1.6 | 8.0 | 0.00 | 0.00 | 0.00 | 73 | 1420.8 |
| 20260501223150 | 10 | 126 | 1.6 | 8.0 | 0.00 | 0.00 | 0.00 | 73 | 1420.9 |
| 20260501223145 | 10 | 126 | 1.6 | 8.0 | 0.00 | 0.00 | 0.00 | 73 | 1420.9 |
| 20260501222950 | 10 | 133 | 1.6 | 8.0 | 0.00 | 0.00 | 0.00 | 73 | 1420.9 |
| 20260501222945 | 10 | 133 | 1.6 | 8.0 | 0.00 | 0.00 | 0.00 | 73 | 1420.9 |
| 20260501222750 | 10 | 125 | 3.2 | 8.0 | 0.00 | 0.00 | 0.00 | 73 | 1420.9 |
| 20260501222745 | 10 | 125 | 3.2 | 8.0 | 0.00 | 0.00 | 0.00 | 73 | 1420.9 |
| 20260501222550 | 10 | 137 | 3.2 | 8.0 | 0.00 | 0.00 | 0.00 | 73 | 1420.9 |
| 20260501222545 | 10 | 137 | 3.2 | 8.0 | 0.00 | 0.00 | 0.00 | 73 | 1420.9 |
| 20260501222350 | 10 | 139 | 3.2 | 8.0 | 0.00 | 0.00 | 0.00 | 73 | 1420.9 |
| 20260501222345 | 10 | 139 | 3.2 | 8.0 | 0.00 | 0.00 | 0.00 | 73 | 1420.9 |
| 20260501222150 | 10 | 136 | 1.6 | 6.4 | 0.00 | 0.00 | 0.00 | 73 | 1421.0 |
| 20260501222145 | 10 | 136 | 1.6 | 6.4 | 0.00 | 0.00 | 0.00 | 73 | 1421.0 |
| 20260501221950 | 10 | 138 | 3.2 | 6.4 | 0.00 | 0.00 | 0.00 | 73 | 1421.0 |
| 20260501221945 | 10 | 138 | 3.2 | 6.4 | 0.00 | 0.00 | 0.00 | 73 | 1421.0 |
| 20260501221750 | 10 | 130 | 1.6 | 6.4 | 0.00 | 0.00 | 0.00 | 73 | 1421.1 |
| 20260501221745 | 10 | 130 | 1.6 | 6.4 | 0.00 | 0.00 | 0.00 | 73 | 1421.1 |
| 20260501221550 | 10 | 125 | 1.6 | 6.4 | 0.00 | 0.00 | 0.00 | 72 | 1421.2 |
| 20260501221545 | 10 | 125 | 1.6 | 6.4 | 0.00 | 0.00 | 0.00 | 72 | 1421.2 |
| 20260501221350 | 11 | 125 | 3.2 | 8.0 | 0.00 | 0.00 | 0.00 | 73 | 1421.2 |
| 20260501221345 | 11 | 125 | 3.2 | 8.0 | 0.00 | 0.00 | 0.00 | 73 | 1421.2 |
| 20260501221150 | 11 | 119 | 1.6 | 8.0 | 0.00 | 0.00 | 0.00 | 73 | 1421.3 |
| 20260501221145 | 11 | 119 | 1.6 | 8.0 | 0.00 | 0.00 | 0.00 | 73 | 1421.3 |
| 20260501220950 | 11 | 129 | 1.6 | 8.0 | 0.00 | 0.00 | 0.00 | 73 | 1421.4 |
| 20260501220945 | 11 | 129 | 1.6 | 8.0 | 0.00 | 0.00 | 0.00 | 73 | 1421.4 |
| 20260501220750 | 11 | 119 | 3.2 | 8.0 | 0.00 | 0.00 | 0.00 | 73 | 1421.5 |
| 20260501220746 | 11 | 119 | 3.2 | 8.0 | 0.00 | 0.00 | 0.00 | 73 | 1421.5 |
| 20260501220550 | 11 | 132 | 3.2 | 8.0 | 0.00 | 0.00 | 0.00 | 73 | 1421.5 |
| 20260501220545 | 11 | 132 | 3.2 | 8.0 | 0.00 | 0.00 | 0.00 | 73 | 1421.5 |
| 20260501220350 | 11 | 127 | 3.2 | 6.4 | 0.00 | 0.00 | 0.00 | 73 | 1421.4 |
| 20260501220345 | 11 | 127 | 3.2 | 6.4 | 0.00 | 0.00 | 0.00 | 73 | 1421.4 |
| 20260501220150 | 11 | 128 | 3.2 | 8.0 | 0.00 | 0.00 | 0.00 | 73 | 1421.3 |
| 20260501220145 | 11 | 128 | 3.2 | 8.0 | 0.00 | 0.00 | 0.00 | 73 | 1421.3 |
| 20260501215950 | 11 | 125 | 3.2 | 8.0 | 0.00 | 0.00 | 0.00 | 74 | 1421.3 |
| 20260501215945 | 11 | 125 | 3.2 | 8.0 | 0.00 | 0.00 | 0.00 | 74 | 1421.3 |
| 20260501215750 | 10 | 134 | 3.2 | 8.0 | 0.00 | 0.00 | 0.00 | 75 | 1421.0 |
| 20260501215745 | 10 | 134 | 3.2 | 8.0 | 0.00 | 0.00 | 0.00 | 75 | 1421.0 |
| 20260501215550 | 10 | 132 | 3.2 | 8.0 | 0.00 | 0.00 | 0.00 | 76 | 1420.7 |
| 20260501215545 | 10 | 132 | 3.2 | 8.0 | 0.00 | 0.00 | 0.00 | 76 | 1420.7 |
| 20260501215350 | 10 | 138 | 3.2 | 6.4 | 0.00 | 0.00 | 0.00 | 76 | 1420.5 |
| 20260501215150 | 10 | 124 | 3.2 | 6.4 | 0.00 | 0.00 | 0.00 | 77 | 1420.5 |
| 20260501215145 | 10 | 124 | 3.2 | 6.4 | 0.00 | 0.00 | 0.00 | 77 | 1420.5 |
| 20260501214950 | 10 | 115 | 3.2 | 6.4 | 0.00 | 0.00 | 0.00 | 77 | 1420.4 |
| 20260501214945 | 10 | 115 | 3.2 | 6.4 | 0.00 | 0.00 | 0.00 | 77 | 1420.4 |
| 20260501214750 | 10 | 117 | 3.2 | 8.0 | 0.00 | 0.00 | 0.00 | 77 | 1420.2 |
| 20260501214745 | 10 | 117 | 3.2 | 8.0 | 0.00 | 0.00 | 0.00 | 77 | 1420.2 |
| 20260501214551 | 10 | 121 | 3.2 | 8.0 | 0.00 | 0.00 | 0.00 | 77 | 1420.2 |
| 20260501214545 | 10 | 121 | 3.2 | 8.0 | 0.00 | 0.00 | 0.00 | 77 | 1420.2 |
| 20260501214350 | 10 | 117 | 1.6 | 8.0 | 0.00 | 0.00 | 0.00 | 77 | 1420.2 |
| 20260501214345 | 10 | 117 | 1.6 | 8.0 | 0.00 | 0.00 | 0.00 | 77 | 1420.2 |
| 20260501214150 | 10 | 116 | 3.2 | 8.0 | 0.00 | 0.00 | 0.00 | 77 | 1420.2 |
| 20260501214145 | 10 | 116 | 3.2 | 8.0 | 0.00 | 0.00 | 0.00 | 77 | 1420.2 |
| 20260501213950 | 10 | 117 | 1.6 | 8.0 | 0.00 | 0.00 | 0.00 | 78 | 1420.1 |
| 20260501213945 | 10 | 117 | 1.6 | 8.0 | 0.00 | 0.00 | 0.00 | 78 | 1420.1 |
| 20260501213750 | 10 | 120 | 1.6 | 6.4 | 0.00 | 0.00 | 0.00 | 78 | 1420.1 |
| 20260501213745 | 10 | 120 | 1.6 | 6.4 | 0.00 | 0.00 | 0.00 | 78 | 1420.1 |
| 20260501213550 | 10 | 127 | 1.6 | 6.4 | 0.00 | 0.00 | 0.00 | 78 | 1420.1 |
| 20260501213545 | 10 | 127 | 1.6 | 6.4 | 0.00 | 0.00 | 0.00 | 78 | 1420.1 |
| 20260501213350 | 10 | 121 | 1.6 | 6.4 | 0.00 | 0.00 | 0.00 | 78 | 1420.1 |
| 20260501213345 | 10 | 121 | 1.6 | 6.4 | 0.00 | 0.00 | 0.00 | 78 | 1420.1 |
| 20260501213151 | 10 | 115 | 1.6 | 4.8 | 0.00 | 0.00 | 0.00 | 78 | 1420.2 |
| 20260501213145 | 10 | 115 | 1.6 | 4.8 | 0.00 | 0.00 | 0.00 | 78 | 1420.2 |
| 20260501212950 | 10 | 118 | 1.6 | 4.8 | 0.00 | 0.00 | 0.00 | 78 | 1420.2 |
| 20260501212945 | 10 | 118 | 1.6 | 4.8 | 0.00 | 0.00 | 0.00 | 78 | 1420.2 |
| 20260501212750 | 10 | 121 | 1.6 | 6.4 | 0.00 | 0.00 | 0.00 | 77 | 1420.3 |
| 20260501212745 | 10 | 121 | 1.6 | 6.4 | 0.00 | 0.00 | 0.00 | 77 | 1420.3 |
| 20260501212550 | 10 | 132 | 1.6 | 6.4 | 0.00 | 0.00 | 0.00 | 77 | 1420.4 |
| 20260501212545 | 10 | 132 | 1.6 | 6.4 | 0.00 | 0.00 | 0.00 | 77 | 1420.4 |
| 20260501212350 | 10 | 119 | 1.6 | 6.4 | 0.00 | 0.00 | 0.00 | 78 | 1420.5 |
| 20260501212345 | 10 | 119 | 1.6 | 6.4 | 0.00 | 0.00 | 0.00 | 78 | 1420.5 |
| 20260501212150 | 10 | 128 | 1.6 | 6.4 | 0.00 | 0.00 | 0.00 | 78 | 1420.5 |
| 20260501212145 | 10 | 128 | 1.6 | 6.4 | 0.00 | 0.00 | 0.00 | 78 | 1420.5 |
| 20260501211950 | 10 | 117 | 1.6 | 6.4 | 0.00 | 0.00 | 0.00 | 78 | 1420.5 |
| 20260501211945 | 10 | 117 | 1.6 | 6.4 | 0.00 | 0.00 | 0.00 | 78 | 1420.5 |
| 20260501211750 | 10 | 112 | 1.6 | 6.4 | 0.00 | 0.00 | 0.00 | 78 | 1420.6 |
| 20260501211745 | 10 | 112 | 1.6 | 6.4 | 0.00 | 0.00 | 0.00 | 78 | 1420.6 |
| 20260501211550 | 10 | 136 | 1.6 | 6.4 | 0.00 | 0.00 | 0.00 | 78 | 1420.6 |
| 20260501211545 | 10 | 136 | 1.6 | 6.4 | 0.00 | 0.00 | 0.00 | 78 | 1420.6 |
| 20260501211350 | 10 | 124 | 3.2 | 6.4 | 0.00 | 0.00 | 0.00 | 77 | 1420.6 |
| 20260501211345 | 10 | 124 | 3.2 | 6.4 | 0.00 | 0.00 | 0.00 | 77 | 1420.6 |
| 20260501211150 | 10 | 119 | 1.6 | 6.4 | 0.00 | 0.00 | 0.00 | 77 | 1420.7 |
| 20260501210950 | 10 | 129 | 3.2 | 6.4 | 0.00 | 0.00 | 0.00 | 77 | 1420.7 |
| 20260501210750 | 10 | 121 | 3.2 | 8.0 | 0.00 | 0.00 | 0.00 | 77 | 1420.8 |
| 20260501210550 | 10 | 119 | 3.2 | 8.0 | 0.00 | 0.00 | 0.00 | 77 | 1420.9 |
| 20260501210350 | 10 | 129 | 3.2 | 8.0 | 0.00 | 0.00 | 0.00 | 77 | 1420.8 |
| 20260501210151 | 10 | 116 | 3.2 | 8.0 | 0.00 | 0.00 | 0.00 | 77 | 1420.8 |
| 20260501205950 | 10 | 120 | 1.6 | 8.0 | 0.00 | 0.00 | 0.00 | 76 | 1420.7 |
| 20260501205750 | 10 | 145 | 1.6 | 8.0 | 0.00 | 0.00 | 0.00 | 76 | 1420.7 |
| 20260501205550 | 10 | 140 | 1.6 | 8.0 | 0.00 | 0.00 | 0.00 | 76 | 1420.8 |
| 20260501205350 | 10 | 137 | 1.6 | 8.0 | 0.00 | 0.00 | 0.00 | 76 | 1420.8 |
| 20260501205150 | 10 | 139 | 1.6 | 6.4 | 0.00 | 0.00 | 0.00 | 75 | 1420.8 |
| 20260501204750 | 10 | 121 | 3.2 | 6.4 | 0.00 | 0.00 | 0.00 | 75 | 1421.0 |
| 20260501204550 | 10 | 138 | 1.6 | 6.4 | 0.00 | 0.00 | 0.00 | 75 | 1420.9 |
| 20260501204351 | 10 | 141 | 1.6 | 6.4 | 0.00 | 0.00 | 0.00 | 75 | 1421.0 |
| 20260501204150 | 10 | 133 | 3.2 | 6.4 | 0.00 | 0.00 | 0.00 | 75 | 1421.0 |
| 20260501203950 | 10 | 130 | 3.2 | 6.4 | 0.00 | 0.00 | 0.00 | 75 | 1421.0 |
| 20260501203750 | 10 | 119 | 3.2 | 6.4 | 0.00 | 0.00 | 0.00 | 75 | 1421.0 |
| 20260501203550 | 10 | 128 | 3.2 | 9.7 | 0.00 | 0.00 | 0.00 | 74 | 1421.0 |
| 20260501203350 | 10 | 122 | 1.6 | 9.7 | 0.00 | 0.00 | 0.00 | 74 | 1421.1 |
| 20260501203151 | 10 | 126 | 3.2 | 9.7 | 0.00 | 0.00 | 0.00 | 74 | 1421.2 |
| 20260501202950 | 11 | 119 | 3.2 | 9.7 | 0.00 | 0.00 | 0.00 | 74 | 1421.2 |
| 20260501202750 | 11 | 120 | 3.2 | 9.7 | 0.00 | 0.00 | 0.00 | 74 | 1421.2 |
| 20260501202550 | 10 | 125 | 3.2 | 6.4 | 0.00 | 0.00 | 0.00 | 73 | 1421.1 |
| 20260501202350 | 10 | 118 | 3.2 | 6.4 | 0.00 | 0.00 | 0.00 | 73 | 1421.1 |
| 20260501202150 | 10 | 114 | 3.2 | 6.4 | 0.00 | 0.00 | 0.00 | 73 | 1421.2 |
| 20260501202145 | 11 | 127 | 1.6 | 6.4 | 0.00 | 0.00 | 0.00 | 73 | 1421.2 |
| 20260501201750 | 11 | 122 | 3.2 | 6.4 | 0.00 | 0.00 | 0.00 | 72 | 1421.2 |
| 20260501201550 | 11 | 147 | 1.6 | 6.4 | 0.00 | 0.00 | 0.00 | 72 | 1421.3 |
| 20260501201350 | 11 | 127 | 3.2 | 6.4 | 0.00 | 0.00 | 0.00 | 72 | 1421.4 |
| 20260501201150 | 11 | 124 | 1.6 | 6.4 | 0.00 | 0.00 | 0.00 | 72 | 1421.4 |
| 20260501200950 | 11 | 122 | 1.6 | 6.4 | 0.00 | 0.00 | 0.00 | 71 | 1421.5 |
| 20260501200750 | 11 | 124 | 1.6 | 6.4 | 0.00 | 0.00 | 0.00 | 71 | 1421.5 |
| 20260501200550 | 11 | 125 | 1.6 | 6.4 | 0.00 | 0.00 | 0.00 | 71 | 1421.6 |
| 20260501200350 | 11 | 148 | 1.6 | 6.4 | 0.00 | 0.00 | 0.00 | 71 | 1421.6 |
| 20260501200150 | 11 | 124 | 1.6 | 6.4 | 0.00 | 0.00 | 0.00 | 70 | 1421.7 |
| 20260501195950 | 11 | 122 | 1.6 | 6.4 | 0.00 | 0.00 | 0.00 | 70 | 1421.7 |
| 20260501195750 | 11 | 136 | 1.6 | 6.4 | 0.00 | 0.00 | 0.00 | 70 | 1421.8 |
| 20260501195550 | 11 | 131 | 1.6 | 6.4 | 0.00 | 0.00 | 0.00 | 70 | 1421.9 |
| 20260501195350 | 11 | 128 | 1.6 | 6.4 | 0.00 | 0.00 | 0.00 | 70 | 1422.0 |
| 20260501195150 | 11 | 156 | 1.6 | 8.0 | 0.00 | 0.00 | 0.00 | 69 | 1422.2 |
| 20260501194950 | 11 | 172 | 1.6 | 8.0 | 0.00 | 0.00 | 0.00 | 69 | 1422.4 |
| 20260501194750 | 11 | 141 | 1.6 | 8.0 | 0.00 | 0.00 | 0.00 | 69 | 1422.5 |
| 20260501194550 | 11 | 125 | 1.6 | 8.0 | 0.00 | 0.00 | 0.00 | 69 | 1422.7 |
| 20260501194350 | 11 | 132 | 3.2 | 8.0 | 0.00 | 0.00 | 0.00 | 69 | 1422.7 |
| 20260501194151 | 11 | 128 | 3.2 | 6.4 | 0.00 | 0.00 | 0.00 | 68 | 1422.8 |
| 20260501193950 | 11 | 145 | 1.6 | 9.7 | 0.00 | 0.00 | 0.00 | 68 | 1422.9 |
| 20260501193750 | 11 | 134 | 3.2 | 9.7 | 0.00 | 0.00 | 0.00 | 68 | 1423.0 |
| 20260501193550 | 11 | 134 | 3.2 | 9.7 | 0.00 | 0.00 | 0.00 | 68 | 1423.1 |
| 20260501193350 | 11 | 140 | 3.2 | 9.7 | 0.00 | 0.00 | 0.00 | 68 | 1423.1 |
| 20260501193150 | 11 | 141 | 3.2 | 11.3 | 0.00 | 0.00 | 0.00 | 68 | 1423.2 |
| 20260501192950 | 11 | 136 | 1.6 | 11.3 | 0.00 | 0.00 | 0.00 | 67 | 1423.3 |
| 20260501192750 | 11 | 131 | 1.6 | 11.3 | 0.00 | 0.00 | 0.00 | 67 | 1423.4 |
| 20260501192550 | 11 | 120 | 3.2 | 11.3 | 0.00 | 0.00 | 0.00 | 67 | 1423.5 |
| 20260501192350 | 11 | 131 | 3.2 | 11.3 | 0.00 | 0.00 | 0.00 | 67 | 1423.6 |
| 20260501192150 | 11 | 127 | 3.2 | 8.0 | 0.00 | 0.00 | 0.00 | 67 | 1423.6 |
| 20260501191950 | 11 | 124 | 3.2 | 8.0 | 0.00 | 0.00 | 0.00 | 67 | 1423.7 |
| 20260501191750 | 11 | 150 | 3.2 | 8.0 | 0.00 | 0.00 | 0.00 | 66 | 1423.8 |
| 20260501191550 | 12 | 136 | 1.6 | 8.0 | 0.00 | 0.00 | 0.00 | 66 | 1423.9 |
| 20260501191350 | 12 | 117 | 3.2 | 9.7 | 0.00 | 0.00 | 0.00 | 66 | 1424.1 |
| 20260501191150 | 12 | 130 | 1.6 | 12.9 | 0.00 | 0.00 | 0.00 | 66 | 1424.2 |
| 20260501190950 | 12 | 124 | 3.2 | 12.9 | 0.00 | 0.00 | 0.00 | 66 | 1424.4 |
| 20260501190750 | 12 | 138 | 3.2 | 12.9 | 0.00 | 0.00 | 0.00 | 65 | 1424.5 |
| 20260501190550 | 12 | 127 | 3.2 | 12.9 | 0.00 | 0.00 | 0.00 | 65 | 1424.6 |
| 20260501190350 | 12 | 156 | 3.2 | 12.9 | 0.00 | 0.00 | 0.00 | 65 | 1424.8 |
| 20260501190150 | 12 | 141 | 4.8 | 11.3 | 0.00 | 0.00 | 0.00 | 65 | 1424.9 |
| 20260501185950 | 12 | 123 | 3.2 | 8.0 | 0.00 | 0.00 | 0.00 | 64 | 1425.1 |
| 20260501185750 | 12 | 138 | 3.2 | 9.7 | 0.00 | 0.00 | 0.00 | 64 | 1425.3 |
| 20260501185550 | 12 | 128 | 3.2 | 9.7 | 0.00 | 0.00 | 0.00 | 64 | 1425.4 |
| 20260501185350 | 12 | 130 | 4.8 | 9.7 | 0.00 | 0.00 | 0.00 | 63 | 1425.6 |
| 20260501185150 | 12 | 145 | 3.2 | 9.7 | 0.00 | 0.00 | 0.00 | 63 | 1425.6 |
| 20260501184950 | 12 | 141 | 3.2 | 12.9 | 0.00 | 0.00 | 0.00 | 63 | 1425.8 |
| 20260501184750 | 12 | 143 | 3.2 | 12.9 | 0.00 | 0.00 | 0.00 | 62 | 1425.9 |
| 20260501184550 | 12 | 130 | 3.2 | 12.9 | 0.00 | 0.00 | 0.00 | 62 | 1426.2 |
| 20260501184350 | 12 | 127 | 3.2 | 12.9 | 0.00 | 0.00 | 0.00 | 62 | 1426.4 |
| 20260501184150 | 13 | 136 | 4.8 | 11.3 | 0.00 | 0.00 | 0.00 | 61 | 1426.6 |
| 20260501183950 | 13 | 137 | 4.8 | 11.3 | 0.00 | 0.00 | 0.00 | 60 | 1426.8 |
| 20260501183750 | 13 | 140 | 3.2 | 8.0 | 0.00 | 0.00 | 0.00 | 60 | 1426.9 |
| 20260501183550 | 13 | 115 | 3.2 | 8.0 | 0.00 | 0.00 | 0.00 | 59 | 1427.1 |
| 20260501183350 | 13 | 145 | 3.2 | 9.7 | 0.00 | 0.00 | 0.00 | 59 | 1427.2 |
| 20260501183150 | 13 | 136 | 3.2 | 11.3 | 0.00 | 0.00 | 0.00 | 58 | 1427.4 |
| 20260501182950 | 13 | 138 | 3.2 | 11.3 | 0.00 | 0.00 | 0.00 | 57 | 1427.6 |
| 20260501182750 | 13 | 143 | 4.8 | 11.3 | 0.00 | 0.00 | 0.00 | 57 | 1427.7 |
| 20260501182550 | 13 | 143 | 3.2 | 14.5 | 0.00 | 0.00 | 0.00 | 56 | 1427.9 |
| 20260501182350 | 13 | 142 | 4.8 | 16.1 | 0.00 | 0.00 | 0.00 | 55 | 1427.9 |
| 20260501182151 | 13 | 153 | 4.8 | 16.1 | 0.00 | 0.00 | 0.00 | 55 | 1428.0 |
| 20260501181950 | 13 | 134 | 4.8 | 16.1 | 0.00 | 0.00 | 0.00 | 54 | 1428.1 |
| 20260501181946 | 13 | 134 | 4.8 | 16.1 | 0.00 | 0.00 | 0.00 | 54 | 1428.1 |
| 20260501181750 | 13 | 153 | 4.8 | 16.1 | 0.00 | 0.00 | 0.00 | 54 | 1428.4 |
| 20260501181550 | 13 | 172 | 4.8 | 16.1 | 0.00 | 0.00 | 0.00 | 53 | 1428.9 |
| 20260501181350 | 14 | 166 | 4.8 | 12.9 | 0.00 | 0.00 | 0.00 | 52 | 1429.8 |
| 20260501181150 | 15 | 161 | 4.8 | 12.9 | 0.00 | 0.00 | 0.00 | 51 | 1431.4 |
| 20260501181146 | 15 | 161 | 4.8 | 12.9 | 0.00 | 0.00 | 0.00 | 51 | 1431.4 |
| 20260501180950 | 15 | 152 | 6.4 | 12.9 | 0.00 | 0.00 | 0.00 | 51 | 1432.2 |
| 20260501180823 | 15 | 144 | 4.8 | 12.9 | 0.00 | 0.00 | 0.00 | 51 | 1432.4 |
| 20260501180750 | 15 | 144 | 4.8 | 12.9 | 0.00 | 0.00 | 0.00 | 51 | 1432.4 |
| 20260501180746 | 15 | 144 | 4.8 | 12.9 | 0.00 | 0.00 | 0.00 | 51 | 1432.4 |
| 20260501180550 | 15 | 150 | 4.8 | 12.9 | 0.00 | 0.00 | 0.00 | 51 | 1432.6 |
| 20260501180350 | 15 | 145 | 4.8 | 12.9 | 0.00 | 0.00 | 0.00 | 52 | 1432.7 |
| 20260501180150 | 15 | 134 | 3.2 | 11.3 | 0.00 | 0.00 | 0.00 | 52 | 1432.9 |
| 20260501180146 | 15 | 134 | 3.2 | 11.3 | 0.00 | 0.00 | 0.00 | 52 | 1432.9 |
| 20260501175950 | 15 | 147 | 4.8 | 11.3 | 0.00 | 0.00 | 0.00 | 52 | 1433.0 |
| 20260501175946 | 15 | 147 | 4.8 | 11.3 | 0.00 | 0.00 | 0.00 | 52 | 1433.0 |
| 20260501175750 | 16 | 136 | 3.2 | 9.7 | 0.00 | 0.00 | 0.00 | 52 | 1433.4 |
| 20260501175746 | 16 | 136 | 3.2 | 9.7 | 0.00 | 0.00 | 0.00 | 52 | 1433.4 |
| 20260501175550 | 16 | 140 | 3.2 | 9.7 | 0.00 | 0.00 | 0.00 | 52 | 1433.7 |
| 20260501175350 | 16 | 150 | 3.2 | 9.7 | 0.00 | 0.00 | 0.00 | 52 | 1433.6 |
| 20260501175346 | 16 | 150 | 3.2 | 9.7 | 0.00 | 0.00 | 0.00 | 52 | 1433.6 |
| 20260501175150 | 16 | 141 | 3.2 | 9.7 | 0.00 | 0.00 | 0.00 | 53 | 1433.6 |
| 20260501174950 | 16 | 154 | 3.2 | 9.7 | 0.00 | 0.00 | 0.00 | 52 | 1434.0 |
| 20260501174946 | 16 | 154 | 3.2 | 9.7 | 0.00 | 0.00 | 0.00 | 52 | 1434.0 |
| 20260501174750 | 16 | 127 | 3.2 | 12.9 | 0.00 | 0.00 | 0.00 | 52 | 1434.4 |
| 20260501174550 | 16 | 124 | 3.2 | 12.9 | 0.00 | 0.00 | 0.00 | 53 | 1434.7 |
| 20260501174350 | 16 | 150 | 3.2 | 12.9 | 0.00 | 0.00 | 0.00 | 52 | 1435.1 |
| 20260501174346 | 16 | 150 | 3.2 | 12.9 | 0.00 | 0.00 | 0.00 | 52 | 1435.1 |
| 20260501174150 | 16 | 138 | 3.2 | 12.9 | 0.00 | 0.00 | 0.00 | 52 | 1435.0 |
| 20260501173950 | 16 | 139 | 4.8 | 12.9 | 0.00 | 0.00 | 0.00 | 51 | 1435.2 |
| 20260501173751 | 17 | 139 | 3.2 | 9.7 | 0.00 | 0.00 | 0.00 | 50 | 1435.9 |
| 20260501173550 | 17 | 167 | 3.2 | 9.7 | 0.00 | 0.00 | 0.00 | 49 | 1436.6 |
| 20260501173350 | 17 | 150 | 3.2 | 9.7 | 0.00 | 0.00 | 0.00 | 49 | 1437.0 |
| 20260501173150 | 17 | 138 | 3.2 | 6.4 | 0.00 | 0.00 | 0.00 | 49 | 1437.6 |
| 20260501172950 | 17 | 147 | 3.2 | 6.4 | 0.00 | 0.00 | 0.00 | 49 | 1437.8 |
| 20260501172750 | 17 | 166 | 3.2 | 12.9 | 0.00 | 0.00 | 0.00 | 48 | 1437.9 |
| 20260501172550 | 17 | 158 | 3.2 | 12.9 | 0.00 | 0.00 | 0.00 | 48 | 1437.8 |
| 20260501172350 | 17 | 141 | 3.2 | 12.9 | 0.00 | 0.00 | 0.00 | 48 | 1437.6 |
| 20260501172150 | 17 | 138 | 3.2 | 12.9 | 0.00 | 0.00 | 0.00 | 48 | 1437.6 |
| 20260501171950 | 17 | 164 | 4.8 | 12.9 | 0.00 | 0.00 | 0.00 | 47 | 1437.7 |
| 20260501171750 | 18 | 154 | 3.2 | 9.7 | 0.00 | 0.00 | 0.00 | 48 | 1438.2 |
| 20260501171550 | 18 | 169 | 3.2 | 12.9 | 0.00 | 0.00 | 0.00 | 48 | 1438.3 |
| 20260501171350 | 18 | 167 | 3.2 | 12.9 | 0.00 | 0.00 | 0.00 | 48 | 1438.2 |
| 20260501171150 | 17 | 183 | 3.2 | 12.9 | 0.00 | 0.00 | 0.00 | 48 | 1438.1 |
| 20260501170950 | 17 | 156 | 3.2 | 14.5 | 0.00 | 0.00 | 0.00 | 48 | 1437.8 |
| 20260501170750 | 17 | 168 | 6.4 | 14.5 | 0.00 | 0.00 | 0.00 | 48 | 1437.8 |
| 20260501170550 | 18 | 146 | 3.2 | 14.5 | 0.00 | 0.00 | 0.00 | 48 | 1438.4 |
| 20260501170350 | 18 | 139 | 1.6 | 19.3 | 0.00 | 0.00 | 0.00 | 49 | 1438.3 |
| 20260501170150 | 17 | 161 | 4.8 | 19.3 | 0.00 | 0.00 | 0.00 | 48 | 1437.8 |
| 20260501165950 | 17 | 163 | 4.8 | 19.3 | 0.00 | 0.00 | 0.00 | 49 | 1438.2 |
| 20260501165750 | 17 | 158 | 3.2 | 19.3 | 0.00 | 0.00 | 0.00 | 49 | 1438.1 |
| 20260501165550 | 17 | 167 | 4.8 | 19.3 | 0.00 | 0.00 | 0.00 | 49 | 1437.9 |
| 20260501165352 | 17 | 172 | 4.8 | 12.9 | 0.00 | 0.00 | 0.00 | 49 | 1437.8 |
| 20260501165152 | 17 | 174 | 4.8 | 12.9 | 0.00 | 0.00 | 0.00 | 49 | 1437.3 |
| 20260501165150 | 17 | 174 | 4.8 | 12.9 | 0.00 | 0.00 | 0.00 | 49 | 1437.3 |
| 20260501164950 | 17 | 198 | 4.8 | 12.9 | 0.00 | 0.00 | 0.00 | 49 | 1437.9 |
| 20260501164750 | 18 | 179 | 4.8 | 11.3 | 0.00 | 0.00 | 0.00 | 48 | 1438.8 |
| 20260501164550 | 18 | 178 | 3.2 | 11.3 | 0.00 | 0.00 | 0.00 | 48 | 1439.0 |
| 20260501164352 | 18 | 182 | 3.2 | 11.3 | 0.00 | 0.00 | 0.00 | 49 | 1439.3 |
| 20260501164350 | 18 | 182 | 3.2 | 11.3 | 0.00 | 0.00 | 0.00 | 49 | 1439.3 |
| 20260501164152 | 18 | 181 | 1.6 | 11.3 | 0.00 | 0.00 | 0.00 | 49 | 1439.3 |
| 20260501164150 | 18 | 181 | 1.6 | 11.3 | 0.00 | 0.00 | 0.00 | 49 | 1439.3 |
| 20260501163950 | 18 | 170 | 3.2 | 11.3 | 0.00 | 0.00 | 0.00 | 49 | 1438.3 |